Wetterdaten: Montag, 16.11.2020
Datum Zeit Temp. Aussen Temp. o. S. Temp +5cm Feuchte Auss Luftdruck Regen Sonnenschein Regendauer Solar Windben Empfang
16.11.2020 00:00 10,1 C 9,4 C 8,4 C 82 % 1005,0 hPa 0,0 l/m 0 min 0 min 0 W/m 35,4 km/h (5 Bft) 97,87 %
16.11.2020 00:02 10,1 C 9,4 C 8,4 C 82 % 1004,9 hPa 0,0 l/m 0 min 0 min 0 W/m 29,0 km/h (5 Bft) 96,88 %
16.11.2020 00:04 10,1 C 9,4 C 8,4 C 82 % 1005,0 hPa 0,0 l/m 0 min 0 min 0 W/m 16,1 km/h (3 Bft) 95,74 %
16.11.2020 00:08 10,1 C 9,4 C 8,4 C 82 % 1005,1 hPa 0,0 l/m 0 min 0 min 0 W/m 29,0 km/h (5 Bft) 97,87 %
16.11.2020 00:10 10,1 C 9,4 C 8,4 C 82 % 1005,1 hPa 0,0 l/m 0 min 0 min 0 W/m 29,0 km/h (5 Bft) 97,87 %
16.11.2020 00:12 10,1 C 9,4 C 8,4 C 82 % 1005,1 hPa 0,0 l/m 0 min 0 min 0 W/m 6,4 km/h (2 Bft) 97,87 %
16.11.2020 00:14 10,1 C 9,4 C 8,4 C 82 % 1005,1 hPa 0,0 l/m 0 min 0 min 0 W/m 22,5 km/h (4 Bft) 97,83 %
16.11.2020 00:16 10,1 C 9,4 C 8,4 C 82 % 1005,1 hPa 0,0 l/m 0 min 0 min 0 W/m 19,3 km/h (3 Bft) 97,87 %
16.11.2020 00:18 10,1 C 9,4 C 8,4 C 82 % 1005,2 hPa 0,0 l/m 0 min 0 min 0 W/m 22,5 km/h (4 Bft) 96,61 %
16.11.2020 00:20 10,1 C 9,4 C 8,4 C 82 % 1005,4 hPa 0,0 l/m 0 min 0 min 0 W/m 29,0 km/h (5 Bft) 97,83 %
16.11.2020 00:22 10,1 C 9,4 C 8,4 C 82 % 1005,4 hPa 0,0 l/m 0 min 0 min 0 W/m 19,3 km/h (3 Bft) 97,87 %
16.11.2020 00:24 10,1 C 9,4 C 8,4 C 82 % 1005,4 hPa 0,0 l/m 0 min 0 min 0 W/m 29,0 km/h (5 Bft) 97,87 %
16.11.2020 00:26 10,1 C 9,4 C 8,4 C 82 % 1005,5 hPa 0,0 l/m 0 min 0 min 0 W/m 22,5 km/h (4 Bft) 95,74 %
16.11.2020 00:28 10,1 C 9,4 C 8,4 C 82 % 1005,5 hPa 0,0 l/m 0 min 0 min 0 W/m 19,3 km/h (3 Bft) 97,87 %
16.11.2020 00:30 10,1 C 9,4 C 8,4 C 82 % 1005,5 hPa 0,0 l/m 0 min 0 min 0 W/m 19,3 km/h (3 Bft) 97,87 %
16.11.2020 00:32 10,1 C 10,0 C 8,4 C 82 % 1005,5 hPa 0,0 l/m 0 min 0 min 0 W/m 25,7 km/h (4 Bft) 95,74 %
16.11.2020 00:34 10,2 C 10,0 C 8,9 C 82 % 1005,6 hPa 0,0 l/m 0 min 0 min 0 W/m 32,2 km/h (5 Bft) 95,65 %
16.11.2020 00:36 10,2 C 9,4 C 8,9 C 82 % 1005,6 hPa 0,0 l/m 0 min 0 min 0 W/m 22,5 km/h (4 Bft) 93,62 %
16.11.2020 00:38 10,2 C 9,4 C 8,4 C 82 % 1005,6 hPa 0,0 l/m 0 min 0 min 0 W/m 16,1 km/h (3 Bft) 93,62 %
16.11.2020 00:40 10,2 C 9,4 C 8,4 C 82 % 1005,6 hPa 0,0 l/m 0 min 0 min 0 W/m 12,9 km/h (3 Bft) 93,62 %
16.11.2020 00:42 10,3 C 9,4 C 8,4 C 82 % 1005,6 hPa 0,0 l/m 0 min 0 min 0 W/m 16,1 km/h (3 Bft) 95,74 %
16.11.2020 00:44 10,3 C 9,4 C 8,4 C 82 % 1005,6 hPa 0,0 l/m 0 min 0 min 0 W/m 12,9 km/h (3 Bft) 93,48 %
16.11.2020 00:46 10,2 C 9,4 C 8,4 C 82 % 1005,6 hPa 0,0 l/m 0 min 0 min 0 W/m 6,4 km/h (2 Bft) 97,87 %
16.11.2020 00:48 10,2 C 9,4 C 8,4 C 82 % 1005,6 hPa 0,0 l/m 0 min 0 min 0 W/m 3,2 km/h (1 Bft) 97,87 %
16.11.2020 00:50 10,1 C 9,4 C 8,4 C 82 % 1005,6 hPa 0,0 l/m 0 min 0 min 0 W/m 12,9 km/h (3 Bft) 97,87 %
16.11.2020 00:52 10,1 C 9,4 C 8,4 C 82 % 1005,6 hPa 0,0 l/m 0 min 0 min 0 W/m 12,9 km/h (3 Bft) 95,74 %
16.11.2020 00:54 10,1 C 8,9 C 7,8 C 82 % 1005,6 hPa 0,0 l/m 0 min 0 min 0 W/m 0,0 km/h (0 Bft) 97,87 %
16.11.2020 00:56 10,1 C 8,9 C 7,8 C 82 % 1005,6 hPa 0,0 l/m 0 min 0 min 0 W/m 12,9 km/h (3 Bft) 97,83 %
16.11.2020 00:58 10,1 C 8,9 C 7,8 C 82 % 1005,6 hPa 0,0 l/m 0 min 0 min 0 W/m 3,2 km/h (1 Bft) 97,87 %
16.11.2020 01:00 10,0 C 8,9 C 7,8 C 83 % 1005,6 hPa 0,0 l/m 0 min 0 min 0 W/m 6,4 km/h (2 Bft) 97,87 %
16.11.2020 01:02 10,0 C 8,9 C 7,8 C 83 % 1005,6 hPa 0,0 l/m 0 min 0 min 0 W/m 3,2 km/h (1 Bft) 97,87 %
16.11.2020 01:04 10,0 C 9,4 C 8,4 C 83 % 1005,6 hPa 0,0 l/m 0 min 0 min 0 W/m 19,3 km/h (3 Bft) 97,87 %
16.11.2020 01:06 10,0 C 8,9 C 8,4 C 83 % 1005,7 hPa 0,0 l/m 0 min 0 min 0 W/m 22,5 km/h (4 Bft) 97,87 %
16.11.2020 01:08 10,0 C 8,9 C 7,8 C 83 % 1005,7 hPa 0,0 l/m 0 min 0 min 0 W/m 9,7 km/h (2 Bft) 95,65 %
16.11.2020 01:10 9,9 C 8,9 C 7,8 C 83 % 1005,7 hPa 0,0 l/m 0 min 0 min 0 W/m 6,4 km/h (2 Bft) 95,74 %
16.11.2020 01:12 9,9 C 8,9 C 7,8 C 83 % 1005,8 hPa 0,0 l/m 0 min 0 min 0 W/m 19,3 km/h (3 Bft) 95,74 %
16.11.2020 01:14 9,9 C 8,9 C 7,8 C 83 % 1005,7 hPa 0,0 l/m 0 min 0 min 0 W/m 12,9 km/h (3 Bft) 95,74 %
16.11.2020 01:16 9,9 C 8,9 C 7,8 C 84 % 1005,7 hPa 0,0 l/m 0 min 0 min 0 W/m 16,1 km/h (3 Bft) 97,87 %
16.11.2020 01:18 9,9 C 8,9 C 7,8 C 84 % 1005,7 hPa 0,0 l/m 0 min 0 min 0 W/m 0,0 km/h (0 Bft) 100,00 %
16.11.2020 01:20 9,8 C 8,9 C 7,8 C 84 % 1005,7 hPa 0,0 l/m 0 min 0 min 0 W/m 0,0 km/h (0 Bft) 100,00 %
16.11.2020 01:22 9,8 C 8,9 C 7,8 C 84 % 1005,7 hPa 0,0 l/m 0 min 0 min 0 W/m 12,9 km/h (3 Bft) 100,00 %
16.11.2020 01:24 9,8 C 8,9 C 7,8 C 84 % 1005,8 hPa 0,0 l/m 0 min 0 min 0 W/m 9,7 km/h (2 Bft) 100,00 %
16.11.2020 01:26 9,8 C 8,9 C 7,8 C 84 % 1005,8 hPa 0,0 l/m 0 min 0 min 0 W/m 16,1 km/h (3 Bft) 100,00 %
16.11.2020 01:28 9,8 C 8,9 C 7,8 C 84 % 1005,8 hPa 0,0 l/m 0 min 0 min 0 W/m 0,0 km/h (0 Bft) 100,00 %
16.11.2020 01:30 9,7 C 8,9 C 7,8 C 84 % 1005,7 hPa 0,0 l/m 0 min 0 min 0 W/m 12,9 km/h (3 Bft) 100,00 %
16.11.2020 01:32 9,7 C 8,9 C 7,8 C 84 % 1005,9 hPa 0,0 l/m 0 min 0 min 0 W/m 19,3 km/h (3 Bft) 100,00 %
16.11.2020 01:34 9,6 C 8,9 C 7,8 C 85 % 1005,9 hPa 0,0 l/m 0 min 0 min 0 W/m 16,1 km/h (3 Bft) 97,87 %
16.11.2020 01:36 9,6 C 8,9 C 7,8 C 85 % 1005,8 hPa 0,0 l/m 0 min 0 min 0 W/m 6,4 km/h (2 Bft) 97,87 %
16.11.2020 01:38 9,6 C 8,9 C 7,8 C 85 % 1005,8 hPa 0,0 l/m 0 min 0 min 0 W/m 19,3 km/h (3 Bft) 100,00 %
16.11.2020 01:40 9,6 C 8,9 C 7,8 C 85 % 1005,8 hPa 0,0 l/m 0 min 0 min 0 W/m 3,2 km/h (1 Bft) 97,87 %
16.11.2020 01:42 9,6 C 8,9 C 7,8 C 85 % 1005,8 hPa 0,0 l/m 0 min 0 min 0 W/m 19,3 km/h (3 Bft) 100,00 %
16.11.2020 01:44 9,6 C 8,9 C 8,4 C 85 % 1005,8 hPa 0,0 l/m 0 min 0 min 0 W/m 16,1 km/h (3 Bft) 100,00 %
16.11.2020 01:46 9,6 C 8,9 C 8,4 C 85 % 1005,8 hPa 0,0 l/m 0 min 0 min 0 W/m 12,9 km/h (3 Bft) 100,00 %
16.11.2020 01:48 9,6 C 8,9 C 8,4 C 85 % 1005,8 hPa 0,0 l/m 0 min 0 min 0 W/m 6,4 km/h (2 Bft) 97,87 %
16.11.2020 01:50 9,6 C 9,4 C 8,4 C 86 % 1005,8 hPa 0,0 l/m 0 min 0 min 0 W/m 29,0 km/h (5 Bft) 100,00 %
16.11.2020 01:52 9,6 C 9,4 C 8,4 C 86 % 1005,8 hPa 0,0 l/m 0 min 0 min 0 W/m 29,0 km/h (5 Bft) 100,00 %
16.11.2020 01:54 9,7 C 9,4 C 8,4 C 86 % 1005,8 hPa 0,0 l/m 0 min 0 min 0 W/m 22,5 km/h (4 Bft) 100,00 %
16.11.2020 01:56 9,7 C 9,4 C 8,4 C 86 % 1005,9 hPa 0,0 l/m 0 min 0 min 0 W/m 29,0 km/h (5 Bft) 100,00 %
16.11.2020 01:58 9,7 C 9,4 C 8,4 C 86 % 1005,9 hPa 0,0 l/m 0 min 0 min 0 W/m 16,1 km/h (3 Bft) 100,00 %
16.11.2020 02:00 9,7 C 9,4 C 8,4 C 86 % 1005,8 hPa 0,0 l/m 0 min 0 min 0 W/m 29,0 km/h (5 Bft) 100,00 %
16.11.2020 02:02 9,8 C 9,4 C 8,4 C 86 % 1005,9 hPa 0,0 l/m 0 min 0 min 0 W/m 3,2 km/h (1 Bft) 97,87 %
16.11.2020 02:04 9,8 C 9,4 C 8,4 C 86 % 1005,9 hPa 0,0 l/m 0 min 0 min 0 W/m 3,2 km/h (1 Bft) 100,00 %
16.11.2020 02:06 9,8 C 8,9 C 8,4 C 86 % 1005,8 hPa 0,0 l/m 0 min 0 min 0 W/m 9,7 km/h (2 Bft) 100,00 %
16.11.2020 02:08 9,8 C 8,9 C 8,4 C 85 % 1005,8 hPa 0,0 l/m 0 min 0 min 0 W/m 6,4 km/h (2 Bft) 97,87 %
16.11.2020 02:10 9,8 C 9,4 C 8,4 C 86 % 1005,9 hPa 0,0 l/m 0 min 0 min 0 W/m 9,7 km/h (2 Bft) 97,87 %
16.11.2020 02:12 9,8 C 9,4 C 8,4 C 85 % 1005,9 hPa 0,0 l/m 0 min 0 min 0 W/m 16,1 km/h (3 Bft) 97,87 %
16.11.2020 02:14 9,8 C 9,4 C 8,4 C 85 % 1005,9 hPa 0,0 l/m 0 min 0 min 0 W/m 19,3 km/h (3 Bft) 100,00 %
16.11.2020 02:16 9,8 C 9,4 C 8,4 C 85 % 1005,9 hPa 0,0 l/m 0 min 0 min 0 W/m 22,5 km/h (4 Bft) 96,55 %
16.11.2020 02:18 9,8 C 9,4 C 8,4 C 85 % 1005,9 hPa 0,0 l/m 0 min 0 min 0 W/m 12,9 km/h (3 Bft) 97,87 %
16.11.2020 02:20 9,8 C 9,4 C 8,4 C 85 % 1006,0 hPa 0,0 l/m 0 min 0 min 0 W/m 16,1 km/h (3 Bft) 97,87 %
16.11.2020 02:22 9,8 C 9,4 C 8,4 C 85 % 1006,0 hPa 0,0 l/m 0 min 0 min 0 W/m 19,3 km/h (3 Bft) 97,87 %
16.11.2020 02:24 9,8 C 9,4 C 8,4 C 85 % 1006,0 hPa 0,0 l/m 0 min 0 min 0 W/m 12,9 km/h (3 Bft) 100,00 %
16.11.2020 02:26 9,9 C 9,4 C 8,4 C 85 % 1006,0 hPa 0,0 l/m 0 min 0 min 0 W/m 9,7 km/h (2 Bft) 96,61 %
16.11.2020 02:28 9,9 C 9,4 C 8,4 C 85 % 1006,1 hPa 0,0 l/m 0 min 0 min 0 W/m 6,4 km/h (2 Bft) 97,83 %
16.11.2020 02:30 9,8 C 9,4 C 8,4 C 85 % 1006,1 hPa 0,0 l/m 0 min 0 min 0 W/m 29,0 km/h (5 Bft) 97,22 %
16.11.2020 02:32 9,9 C 9,4 C 8,4 C 85 % 1006,1 hPa 0,0 l/m 0 min 0 min 0 W/m 19,3 km/h (3 Bft) 98,28 %
16.11.2020 02:34 9,9 C 9,4 C 8,4 C 85 % 1006,2 hPa 0,0 l/m 0 min 0 min 0 W/m 25,7 km/h (4 Bft) 95,74 %
16.11.2020 02:36 9,9 C 9,4 C 8,4 C 85 % 1006,2 hPa 0,0 l/m 0 min 0 min 0 W/m 9,7 km/h (2 Bft) 95,74 %
16.11.2020 02:38 9,9 C 9,4 C 8,4 C 85 % 1006,2 hPa 0,0 l/m 0 min 0 min 0 W/m 19,3 km/h (3 Bft) 97,87 %
16.11.2020 02:40 9,9 C 9,4 C 8,4 C 85 % 1006,3 hPa 0,0 l/m 0 min 0 min 0 W/m 3,2 km/h (1 Bft) 97,87 %
16.11.2020 02:42 9,9 C 9,4 C 8,4 C 85 % 1006,3 hPa 0,0 l/m 0 min 0 min 0 W/m 12,9 km/h (3 Bft) 95,65 %
16.11.2020 02:44 9,9 C 8,9 C 8,4 C 85 % 1006,3 hPa 0,0 l/m 0 min 0 min 0 W/m 6,4 km/h (2 Bft) 97,87 %
16.11.2020 02:46 9,9 C 9,4 C 8,4 C 85 % 1006,3 hPa 0,0 l/m 0 min 0 min 0 W/m 19,3 km/h (3 Bft) 97,87 %
16.11.2020 02:48 9,9 C 9,4 C 8,4 C 85 % 1006,4 hPa 0,0 l/m 0 min 0 min 0 W/m 6,4 km/h (2 Bft) 97,87 %
16.11.2020 02:50 9,8 C 9,4 C 8,4 C 85 % 1006,4 hPa 0,0 l/m 0 min 0 min 0 W/m 22,5 km/h (4 Bft) 97,87 %
16.11.2020 02:52 9,9 C 9,4 C 8,4 C 85 % 1006,5 hPa 0,0 l/m 0 min 0 min 0 W/m 16,1 km/h (3 Bft) 95,65 %
16.11.2020 02:54 9,9 C 9,4 C 8,4 C 85 % 1006,5 hPa 0,0 l/m 0 min 0 min 0 W/m 9,7 km/h (2 Bft) 95,74 %
16.11.2020 02:56 9,9 C 9,4 C 8,4 C 85 % 1006,5 hPa 0,0 l/m 0 min 0 min 0 W/m 19,3 km/h (3 Bft) 95,74 %
16.11.2020 02:58 9,9 C 9,4 C 8,4 C 85 % 1006,5 hPa 0,0 l/m 0 min 0 min 0 W/m 6,4 km/h (2 Bft) 94,29 %
16.11.2020 03:00 9,9 C 9,4 C 8,4 C 85 % 1006,5 hPa 0,0 l/m 0 min 0 min 0 W/m 32,2 km/h (5 Bft) 95,74 %
16.11.2020 03:02 9,9 C 9,4 C 8,4 C 86 % 1006,5 hPa 0,0 l/m 0 min 0 min 0 W/m 32,2 km/h (5 Bft) 93,22 %
16.11.2020 03:04 9,9 C 9,4 C 8,4 C 85 % 1006,5 hPa 0,0 l/m 0 min 0 min 0 W/m 16,1 km/h (3 Bft) 97,14 %
16.11.2020 03:06 9,9 C 9,4 C 8,4 C 85 % 1006,5 hPa 0,0 l/m 0 min 0 min 0 W/m 16,1 km/h (3 Bft) 94,83 %
16.11.2020 03:08 9,9 C 9,4 C 8,4 C 85 % 1006,5 hPa 0,0 l/m 0 min 0 min 0 W/m 19,3 km/h (3 Bft) 95,74 %
16.11.2020 03:10 9,9 C 9,4 C 8,4 C 85 % 1006,6 hPa 0,0 l/m 0 min 0 min 0 W/m 25,7 km/h (4 Bft) 97,87 %
16.11.2020 03:12 10,0 C 9,4 C 8,4 C 85 % 1006,6 hPa 0,0 l/m 0 min 0 min 0 W/m 29,0 km/h (5 Bft) 97,14 %
16.11.2020 03:14 10,0 C 9,4 C 8,9 C 85 % 1006,6 hPa 0,0 l/m 0 min 0 min 0 W/m 38,6 km/h (5 Bft) 94,92 %
16.11.2020 03:16 10,0 C 9,4 C 8,9 C 85 % 1006,7 hPa 0,0 l/m 0 min 0 min 0 W/m 35,4 km/h (5 Bft) 93,48 %
16.11.2020 03:18 10,0 C 9,4 C 8,9 C 85 % 1006,8 hPa 0,0 l/m 0 min 0 min 0 W/m 32,2 km/h (5 Bft) 95,74 %
16.11.2020 03:20 10,0 C 9,4 C 8,9 C 85 % 1006,8 hPa 0,0 l/m 0 min 0 min 0 W/m 32,2 km/h (5 Bft) 95,74 %
16.11.2020 03:22 10,1 C 9,4 C 8,9 C 85 % 1006,8 hPa 0,0 l/m 0 min 0 min 0 W/m 25,7 km/h (4 Bft) 93,48 %
16.11.2020 03:24 10,1 C 9,4 C 8,9 C 85 % 1006,8 hPa 0,0 l/m 0 min 0 min 0 W/m 29,0 km/h (5 Bft) 95,74 %
16.11.2020 03:26 10,1 C 9,4 C 8,9 C 85 % 1006,9 hPa 0,0 l/m 0 min 0 min 0 W/m 29,0 km/h (5 Bft) 95,74 %
16.11.2020 03:28 10,1 C 9,4 C 8,9 C 85 % 1006,9 hPa 0,0 l/m 0 min 0 min 0 W/m 29,0 km/h (5 Bft) 95,65 %
16.11.2020 03:30 10,1 C 9,4 C 8,9 C 85 % 1006,9 hPa 0,0 l/m 0 min 0 min 0 W/m 25,7 km/h (4 Bft) 93,62 %
16.11.2020 03:32 10,2 C 10,0 C 8,9 C 85 % 1007,0 hPa 0,0 l/m 0 min 0 min 0 W/m 41,8 km/h (6 Bft) 95,74 %
16.11.2020 03:34 10,2 C 10,0 C 8,9 C 85 % 1007,0 hPa 0,0 l/m 0 min 0 min 0 W/m 25,7 km/h (4 Bft) 95,74 %
16.11.2020 03:36 10,3 C 10,0 C 8,9 C 85 % 1007,1 hPa 0,0 l/m 0 min 0 min 0 W/m 54,7 km/h (7 Bft) 93,62 %
16.11.2020 03:38 10,3 C 10,0 C 8,9 C 85 % 1007,1 hPa 0,0 l/m 0 min 0 min 0 W/m 38,6 km/h (5 Bft) 95,65 %
16.11.2020 03:40 10,3 C 9,4 C 8,9 C 85 % 1007,1 hPa 0,0 l/m 0 min 0 min 0 W/m 35,4 km/h (5 Bft) 91,49 %
16.11.2020 03:42 10,3 C 9,4 C 8,9 C 85 % 1007,2 hPa 0,0 l/m 0 min 0 min 0 W/m 35,4 km/h (5 Bft) 97,87 %
16.11.2020 03:44 10,4 C 9,4 C 8,4 C 85 % 1007,1 hPa 0,0 l/m 0 min 0 min 0 W/m 32,2 km/h (5 Bft) 97,87 %
16.11.2020 03:46 10,4 C 9,4 C 8,9 C 85 % 1007,2 hPa 0,0 l/m 0 min 0 min 0 W/m 35,4 km/h (5 Bft) 91,49 %
16.11.2020 03:48 10,4 C 10,0 C 8,9 C 85 % 1007,1 hPa 0,0 l/m 0 min 0 min 0 W/m 29,0 km/h (5 Bft) 100,00 %
16.11.2020 03:50 10,4 C 10,0 C 8,9 C 85 % 1007,2 hPa 0,0 l/m 0 min 0 min 0 W/m 29,0 km/h (5 Bft) 97,87 %
16.11.2020 03:52 10,4 C 9,4 C 8,9 C 85 % 1007,2 hPa 0,0 l/m 0 min 0 min 0 W/m 45,1 km/h (6 Bft) 97,83 %
16.11.2020 03:54 10,4 C 9,4 C 8,9 C 85 % 1007,3 hPa 0,0 l/m 0 min 0 min 0 W/m 48,3 km/h (6 Bft) 97,87 %
16.11.2020 03:56 10,4 C 9,4 C 8,9 C 85 % 1007,3 hPa 0,0 l/m 0 min 0 min 0 W/m 32,2 km/h (5 Bft) 97,87 %
16.11.2020 03:58 10,3 C 9,4 C 8,9 C 85 % 1007,5 hPa 0,0 l/m 0 min 0 min 0 W/m 38,6 km/h (5 Bft) 97,87 %
16.11.2020 04:00 10,3 C 9,4 C 8,9 C 85 % 1007,4 hPa 0,0 l/m 0 min 0 min 0 W/m 41,8 km/h (6 Bft) 97,87 %
16.11.2020 04:02 10,3 C 9,4 C 8,9 C 85 % 1007,4 hPa 0,0 l/m 0 min 0 min 0 W/m 29,0 km/h (5 Bft) 100,00 %
16.11.2020 04:04 10,3 C 9,4 C 8,4 C 85 % 1007,4 hPa 0,0 l/m 0 min 0 min 0 W/m 32,2 km/h (5 Bft) 97,87 %
16.11.2020 04:06 10,2 C 9,4 C 8,4 C 85 % 1007,5 hPa 0,0 l/m 0 min 0 min 0 W/m 25,7 km/h (4 Bft) 97,87 %
16.11.2020 04:08 10,2 C 9,4 C 8,4 C 86 % 1007,6 hPa 0,0 l/m 0 min 0 min 0 W/m 32,2 km/h (5 Bft) 100,00 %
16.11.2020 04:10 10,1 C 9,4 C 8,4 C 86 % 1007,6 hPa 0,0 l/m 0 min 0 min 0 W/m 29,0 km/h (5 Bft) 100,00 %
16.11.2020 04:12 10,1 C 9,4 C 8,4 C 86 % 1007,6 hPa 0,0 l/m 0 min 0 min 0 W/m 29,0 km/h (5 Bft) 100,00 %
16.11.2020 04:14 10,1 C 9,4 C 8,4 C 86 % 1007,7 hPa 0,0 l/m 0 min 0 min 0 W/m 38,6 km/h (5 Bft) 100,00 %
16.11.2020 04:16 10,0 C 8,9 C 8,4 C 86 % 1007,7 hPa 0,0 l/m 0 min 0 min 0 W/m 29,0 km/h (5 Bft) 100,00 %
16.11.2020 04:18 10,0 C 8,9 C 8,4 C 86 % 1007,8 hPa 0,0 l/m 0 min 0 min 0 W/m 38,6 km/h (5 Bft) 100,00 %
16.11.2020 04:20 10,0 C 8,9 C 8,4 C 86 % 1007,8 hPa 0,0 l/m 0 min 0 min 0 W/m 22,5 km/h (4 Bft) 100,00 %
16.11.2020 04:22 9,9 C 8,9 C 8,4 C 86 % 1007,9 hPa 0,0 l/m 0 min 0 min 0 W/m 25,7 km/h (4 Bft) 100,00 %
16.11.2020 04:24 9,9 C 8,9 C 8,4 C 86 % 1008,0 hPa 0,0 l/m 0 min 0 min 0 W/m 35,4 km/h (5 Bft) 100,00 %
16.11.2020 04:26 9,9 C 8,9 C 8,4 C 86 % 1007,9 hPa 0,0 l/m 0 min 0 min 0 W/m 38,6 km/h (5 Bft) 100,00 %
16.11.2020 04:28 9,9 C 8,9 C 8,4 C 86 % 1008,0 hPa 0,0 l/m 0 min 0 min 0 W/m 29,0 km/h (5 Bft) 100,00 %
16.11.2020 04:30 9,8 C 8,9 C 8,4 C 87 % 1007,9 hPa 0,0 l/m 0 min 0 min 0 W/m 25,7 km/h (4 Bft) 100,00 %
16.11.2020 04:32 9,8 C 8,9 C 8,4 C 87 % 1007,9 hPa 0,0 l/m 0 min 0 min 0 W/m 32,2 km/h (5 Bft) 97,87 %
16.11.2020 04:34 9,8 C 8,9 C 7,8 C 87 % 1008,1 hPa 0,0 l/m 0 min 0 min 0 W/m 25,7 km/h (4 Bft) 100,00 %
16.11.2020 04:36 9,7 C 8,9 C 7,8 C 87 % 1008,1 hPa 0,0 l/m 0 min 0 min 0 W/m 29,0 km/h (5 Bft) 100,00 %
16.11.2020 04:38 9,7 C 8,9 C 7,8 C 87 % 1008,0 hPa 0,0 l/m 0 min 0 min 0 W/m 25,7 km/h (4 Bft) 100,00 %
16.11.2020 04:40 9,6 C 8,9 C 7,8 C 87 % 1008,1 hPa 0,0 l/m 0 min 0 min 0 W/m 35,4 km/h (5 Bft) 100,00 %
16.11.2020 04:42 9,6 C 8,9 C 7,8 C 87 % 1008,1 hPa 0,0 l/m 0 min 0 min 0 W/m 32,2 km/h (5 Bft) 100,00 %
16.11.2020 04:44 9,6 C 8,9 C 7,8 C 87 % 1008,1 hPa 0,0 l/m 0 min 0 min 0 W/m 22,5 km/h (4 Bft) 100,00 %
16.11.2020 04:46 9,5 C 8,9 C 7,8 C 87 % 1008,3 hPa 0,0 l/m 0 min 0 min 0 W/m 45,1 km/h (6 Bft) 97,87 %
16.11.2020 04:48 9,5 C 8,9 C 7,8 C 87 % 1008,2 hPa 0,0 l/m 0 min 0 min 0 W/m 29,0 km/h (5 Bft) 100,00 %
16.11.2020 04:50 9,5 C 8,9 C 7,8 C 86 % 1008,3 hPa 0,0 l/m 0 min 0 min 0 W/m 51,5 km/h (7 Bft) 100,00 %
16.11.2020 04:52 9,5 C 8,9 C 7,8 C 86 % 1008,3 hPa 0,0 l/m 0 min 0 min 0 W/m 25,7 km/h (4 Bft) 100,00 %
16.11.2020 04:54 9,5 C 8,9 C 7,8 C 86 % 1008,4 hPa 0,0 l/m 0 min 0 min 0 W/m 22,5 km/h (4 Bft) 100,00 %
16.11.2020 04:56 9,5 C 8,9 C 7,8 C 86 % 1008,4 hPa 0,0 l/m 0 min 0 min 0 W/m 32,2 km/h (5 Bft) 100,00 %
16.11.2020 04:58 9,5 C 8,9 C 7,8 C 86 % 1008,4 hPa 0,0 l/m 0 min 0 min 0 W/m 29,0 km/h (5 Bft) 100,00 %
16.11.2020 05:00 9,4 C 8,9 C 7,8 C 86 % 1008,5 hPa 0,0 l/m 0 min 0 min 0 W/m 35,4 km/h (5 Bft) 97,83 %
16.11.2020 05:02 9,4 C 8,9 C 7,8 C 86 % 1008,6 hPa 0,0 l/m 0 min 0 min 0 W/m 25,7 km/h (4 Bft) 100,00 %
16.11.2020 05:04 9,4 C 8,9 C 7,8 C 86 % 1008,5 hPa 0,0 l/m 0 min 0 min 0 W/m 22,5 km/h (4 Bft) 100,00 %
16.11.2020 05:06 9,4 C 8,9 C 7,8 C 87 % 1008,6 hPa 0,0 l/m 0 min 0 min 0 W/m 22,5 km/h (4 Bft) 97,87 %
16.11.2020 05:08 9,4 C 8,9 C 7,8 C 87 % 1008,6 hPa 0,0 l/m 0 min 0 min 0 W/m 29,0 km/h (5 Bft) 100,00 %
16.11.2020 05:10 9,4 C 8,9 C 7,8 C 87 % 1008,5 hPa 0,0 l/m 0 min 0 min 0 W/m 25,7 km/h (4 Bft) 100,00 %
16.11.2020 05:12 9,4 C 8,9 C 7,8 C 87 % 1008,5 hPa 0,0 l/m 0 min 0 min 0 W/m 19,3 km/h (3 Bft) 100,00 %
16.11.2020 05:14 9,4 C 8,9 C 7,8 C 87 % 1008,5 hPa 0,0 l/m 0 min 0 min 0 W/m 16,1 km/h (3 Bft) 100,00 %
16.11.2020 05:16 9,4 C 8,9 C 7,8 C 87 % 1008,6 hPa 0,0 l/m 0 min 0 min 0 W/m 12,9 km/h (3 Bft) 100,00 %
16.11.2020 05:18 9,4 C 8,9 C 7,8 C 87 % 1008,7 hPa 0,0 l/m 0 min 0 min 0 W/m 25,7 km/h (4 Bft) 100,00 %
16.11.2020 05:20 9,4 C 8,9 C 8,4 C 87 % 1008,6 hPa 0,0 l/m 0 min 0 min 0 W/m 19,3 km/h (3 Bft) 100,00 %
16.11.2020 05:22 9,4 C 8,9 C 8,4 C 87 % 1008,7 hPa 0,0 l/m 0 min 0 min 0 W/m 16,1 km/h (3 Bft) 100,00 %
16.11.2020 05:24 9,4 C 8,9 C 8,4 C 87 % 1008,7 hPa 0,0 l/m 0 min 0 min 0 W/m 19,3 km/h (3 Bft) 100,00 %
16.11.2020 05:26 9,5 C 9,4 C 8,4 C 87 % 1008,7 hPa 0,0 l/m 0 min 0 min 0 W/m 22,5 km/h (4 Bft) 100,00 %
16.11.2020 05:28 9,5 C 8,9 C 8,4 C 87 % 1008,7 hPa 0,0 l/m 0 min 0 min 0 W/m 12,9 km/h (3 Bft) 100,00 %
16.11.2020 05:30 9,5 C 9,4 C 8,4 C 87 % 1008,7 hPa 0,0 l/m 0 min 0 min 0 W/m 22,5 km/h (4 Bft) 95,74 %
16.11.2020 05:32 9,5 C 9,4 C 8,4 C 87 % 1008,8 hPa 0,0 l/m 0 min 0 min 0 W/m 32,2 km/h (5 Bft) 100,00 %
16.11.2020 05:34 9,6 C 9,4 C 8,4 C 87 % 1008,7 hPa 0,0 l/m 0 min 0 min 0 W/m 25,7 km/h (4 Bft) 100,00 %
16.11.2020 05:36 9,6 C 9,4 C 8,4 C 87 % 1008,8 hPa 0,0 l/m 0 min 0 min 0 W/m 16,1 km/h (3 Bft) 100,00 %
16.11.2020 05:38 9,6 C 9,4 C 8,4 C 87 % 1008,9 hPa 0,0 l/m 0 min 0 min 0 W/m 25,7 km/h (4 Bft) 97,87 %
16.11.2020 05:40 9,7 C 9,4 C 8,4 C 87 % 1008,8 hPa 0,0 l/m 0 min 0 min 0 W/m 29,0 km/h (5 Bft) 100,00 %
16.11.2020 05:42 9,7 C 9,4 C 8,4 C 87 % 1008,9 hPa 0,0 l/m 0 min 0 min 0 W/m 32,2 km/h (5 Bft) 100,00 %
16.11.2020 05:44 9,8 C 9,4 C 8,4 C 87 % 1008,9 hPa 0,0 l/m 0 min 0 min 0 W/m 12,9 km/h (3 Bft) 100,00 %
16.11.2020 05:46 9,8 C 9,4 C 8,4 C 87 % 1008,9 hPa 0,0 l/m 0 min 0 min 0 W/m 25,7 km/h (4 Bft) 100,00 %
16.11.2020 05:48 9,8 C 9,4 C 8,4 C 87 % 1008,9 hPa 0,0 l/m 0 min 0 min 0 W/m 22,5 km/h (4 Bft) 97,83 %
16.11.2020 05:50 9,8 C 9,4 C 8,4 C 87 % 1008,9 hPa 0,0 l/m 0 min 0 min 0 W/m 25,7 km/h (4 Bft) 97,87 %
16.11.2020 05:52 9,8 C 9,4 C 8,4 C 87 % 1009,0 hPa 0,0 l/m 0 min 0 min 0 W/m 29,0 km/h (5 Bft) 95,74 %
16.11.2020 05:54 9,9 C 9,4 C 8,4 C 87 % 1008,9 hPa 0,0 l/m 0 min 0 min 0 W/m 19,3 km/h (3 Bft) 95,74 %
16.11.2020 05:56 9,9 C 9,4 C 8,4 C 87 % 1009,0 hPa 0,0 l/m 0 min 0 min 0 W/m 41,8 km/h (6 Bft) 95,74 %
16.11.2020 05:58 9,9 C 9,4 C 8,4 C 87 % 1009,0 hPa 0,0 l/m 0 min 0 min 0 W/m 25,7 km/h (4 Bft) 95,74 %
16.11.2020 06:00 9,9 C 9,4 C 8,4 C 87 % 1009,0 hPa 0,0 l/m 0 min 0 min 0 W/m 22,5 km/h (4 Bft) 95,65 %
16.11.2020 06:02 9,9 C 9,4 C 8,4 C 87 % 1009,0 hPa 0,0 l/m 0 min 0 min 0 W/m 25,7 km/h (4 Bft) 89,36 %
16.11.2020 06:04 9,9 C 9,4 C 8,4 C 87 % 1009,0 hPa 0,0 l/m 0 min 0 min 0 W/m 19,3 km/h (3 Bft) 93,62 %
16.11.2020 06:07 9,9 C 9,4 C 8,4 C 87 % 1009,0 hPa 0,0 l/m 0 min 0 min 0 W/m 19,3 km/h (3 Bft) 94,29 %
16.11.2020 06:08 9,9 C 9,4 C 8,4 C 87 % 1009,0 hPa 0,0 l/m 0 min 0 min 0 W/m 22,5 km/h (4 Bft) 87,50 %
16.11.2020 06:10 9,9 C 9,4 C 8,4 C 87 % 1009,1 hPa 0,0 l/m 0 min 0 min 0 W/m 19,3 km/h (3 Bft) 93,48 %
16.11.2020 06:12 9,9 C 9,4 C 8,4 C 87 % 1009,1 hPa 0,0 l/m 0 min 0 min 0 W/m 29,0 km/h (5 Bft) 95,74 %
16.11.2020 06:14 9,9 C 9,4 C 8,4 C 87 % 1009,1 hPa 0,0 l/m 0 min 0 min 0 W/m 19,3 km/h (3 Bft) 89,36 %
16.11.2020 06:16 10,0 C 9,4 C 8,4 C 87 % 1009,2 hPa 0,0 l/m 0 min 0 min 0 W/m 19,3 km/h (3 Bft) 93,62 %
16.11.2020 06:18 10,0 C 9,4 C 8,4 C 87 % 1009,3 hPa 0,0 l/m 0 min 0 min 0 W/m 25,7 km/h (4 Bft) 93,62 %
16.11.2020 06:20 10,0 C 9,4 C 8,4 C 87 % 1009,2 hPa 0,0 l/m 0 min 0 min 0 W/m 12,9 km/h (3 Bft) 93,62 %
16.11.2020 06:22 10,0 C 9,4 C 8,9 C 87 % 1009,3 hPa 0,0 l/m 0 min 0 min 0 W/m 19,3 km/h (3 Bft) 93,48 %
16.11.2020 06:24 10,0 C 9,4 C 8,9 C 87 % 1009,3 hPa 0,0 l/m 0 min 0 min 0 W/m 32,2 km/h (5 Bft) 91,49 %
16.11.2020 06:26 10,0 C 9,4 C 8,9 C 87 % 1009,4 hPa 0,0 l/m 0 min 0 min 0 W/m 32,2 km/h (5 Bft) 92,16 %
16.11.2020 06:28 10,0 C 9,4 C 8,9 C 87 % 1009,3 hPa 0,0 l/m 0 min 0 min 0 W/m 32,2 km/h (5 Bft) 93,62 %
16.11.2020 06:30 10,0 C 9,4 C 8,9 C 87 % 1009,4 hPa 0,0 l/m 0 min 0 min 0 W/m 32,2 km/h (5 Bft) 91,49 %
16.11.2020 06:32 10,1 C 9,4 C 8,9 C 87 % 1009,3 hPa 0,0 l/m 0 min 0 min 0 W/m 32,2 km/h (5 Bft) 93,62 %
16.11.2020 06:34 10,1 C 9,4 C 8,9 C 87 % 1009,4 hPa 0,0 l/m 0 min 0 min 0 W/m 32,2 km/h (5 Bft) 93,48 %
16.11.2020 06:36 10,1 C 9,4 C 8,9 C 87 % 1009,4 hPa 0,0 l/m 0 min 0 min 0 W/m 35,4 km/h (5 Bft) 95,74 %
16.11.2020 06:38 10,1 C 9,4 C 8,9 C 87 % 1009,4 hPa 0,0 l/m 0 min 0 min 0 W/m 32,2 km/h (5 Bft) 93,62 %
16.11.2020 06:40 10,1 C 9,4 C 8,9 C 87 % 1009,4 hPa 0,0 l/m 0 min 0 min 0 W/m 32,2 km/h (5 Bft) 93,62 %
16.11.2020 06:42 10,1 C 9,4 C 8,9 C 87 % 1009,5 hPa 0,0 l/m 0 min 0 min 0 W/m 16,1 km/h (3 Bft) 93,62 %
16.11.2020 06:44 10,2 C 9,4 C 8,9 C 87 % 1009,5 hPa 0,0 l/m 0 min 0 min 0 W/m 32,2 km/h (5 Bft) 97,83 %
16.11.2020 06:46 10,2 C 9,4 C 8,9 C 87 % 1009,5 hPa 0,0 l/m 0 min 0 min 0 W/m 29,0 km/h (5 Bft) 97,87 %
16.11.2020 06:48 10,2 C 10,0 C 8,9 C 87 % 1009,5 hPa 0,0 l/m 0 min 0 min 0 W/m 35,4 km/h (5 Bft) 95,74 %
16.11.2020 06:50 10,2 C 10,0 C 8,9 C 87 % 1009,6 hPa 0,0 l/m 0 min 0 min 0 W/m 29,0 km/h (5 Bft) 97,87 %
16.11.2020 06:52 10,2 C 9,4 C 8,9 C 87 % 1009,7 hPa 0,0 l/m 0 min 0 min 0 W/m 41,8 km/h (6 Bft) 97,87 %
16.11.2020 06:54 10,3 C 9,4 C 8,9 C 87 % 1009,7 hPa 0,0 l/m 0 min 0 min 0 W/m 16,1 km/h (3 Bft) 100,00 %
16.11.2020 06:56 10,3 C 9,4 C 8,9 C 87 % 1009,7 hPa 0,0 l/m 0 min 0 min 0 W/m 12,9 km/h (3 Bft) 95,65 %
16.11.2020 06:58 10,3 C 9,4 C 8,9 C 87 % 1009,8 hPa 0,0 l/m 0 min 0 min 0 W/m 19,3 km/h (3 Bft) 97,87 %
16.11.2020 07:00 10,3 C 9,4 C 8,9 C 87 % 1009,8 hPa 0,0 l/m 0 min 0 min 0 W/m 29,0 km/h (5 Bft) 100,00 %
16.11.2020 07:02 10,3 C 9,4 C 8,9 C 87 % 1009,8 hPa 0,0 l/m 0 min 0 min 0 W/m 19,3 km/h (3 Bft) 100,00 %
16.11.2020 07:04 10,3 C 9,4 C 8,9 C 87 % 1009,8 hPa 0,0 l/m 0 min 0 min 0 W/m 25,7 km/h (4 Bft) 100,00 %
16.11.2020 07:06 10,3 C 9,4 C 8,9 C 87 % 1009,8 hPa 0,0 l/m 0 min 0 min 0 W/m 29,0 km/h (5 Bft) 97,87 %
16.11.2020 07:08 10,3 C 9,4 C 8,9 C 87 % 1009,8 hPa 0,0 l/m 0 min 0 min 0 W/m 19,3 km/h (3 Bft) 100,00 %
16.11.2020 07:10 10,3 C 9,4 C 8,9 C 87 % 1009,8 hPa 0,0 l/m 0 min 0 min 0 W/m 16,1 km/h (3 Bft) 97,87 %
16.11.2020 07:12 10,3 C 10,0 C 8,9 C 87 % 1009,9 hPa 0,0 l/m 0 min 0 min 0 W/m 25,7 km/h (4 Bft) 100,00 %
16.11.2020 07:14 10,3 C 10,0 C 8,9 C 87 % 1009,8 hPa 0,0 l/m 0 min 0 min 0 W/m 16,1 km/h (3 Bft) 100,00 %
16.11.2020 07:16 10,3 C 10,0 C 8,9 C 88 % 1009,9 hPa 0,0 l/m 0 min 0 min 0 W/m 22,5 km/h (4 Bft) 97,87 %
16.11.2020 07:18 10,3 C 10,0 C 8,9 C 88 % 1009,9 hPa 0,0 l/m 0 min 0 min 0 W/m 25,7 km/h (4 Bft) 97,87 %
16.11.2020 07:20 10,4 C 8,9 C 8,4 C 88 % 1010,1 hPa 0,0 l/m 0 min 2 min 0 W/m 32,2 km/h (5 Bft) 100,00 %
16.11.2020 07:22 10,4 C 8,3 C 7,8 C 88 % 1010,0 hPa 0,0 l/m 0 min 2 min 0 W/m 16,1 km/h (3 Bft) 100,00 %
16.11.2020 07:24 10,4 C 8,3 C 7,8 C 88 % 1010,1 hPa 0,0 l/m 0 min 2 min 0 W/m 22,5 km/h (4 Bft) 100,00 %
16.11.2020 07:26 10,4 C 8,3 C 7,8 C 88 % 1010,2 hPa 0,0 l/m 0 min 2 min 0 W/m 25,7 km/h (4 Bft) 100,00 %
16.11.2020 07:28 10,4 C 8,3 C 7,8 C 89 % 1010,3 hPa 0,0 l/m 0 min 2 min 0 W/m 32,2 km/h (5 Bft) 100,00 %
16.11.2020 07:30 10,4 C 8,3 C 7,8 C 89 % 1010,2 hPa 0,0 l/m 0 min 2 min 0 W/m 25,7 km/h (4 Bft) 100,00 %
16.11.2020 07:32 10,4 C 8,3 C 7,8 C 89 % 1010,2 hPa 0,2 l/m 0 min 2 min 0 W/m 19,3 km/h (3 Bft) 100,00 %
16.11.2020 07:34 10,3 C 8,3 C 7,8 C 89 % 1010,3 hPa 0,0 l/m 0 min 2 min 0 W/m 29,0 km/h (5 Bft) 100,00 %
16.11.2020 07:36 10,3 C 8,3 C 7,8 C 90 % 1010,3 hPa 0,0 l/m 0 min 2 min 0 W/m 29,0 km/h (5 Bft) 100,00 %
16.11.2020 07:38 10,3 C 8,3 C 7,8 C 90 % 1010,3 hPa 0,0 l/m 0 min 2 min 0 W/m 29,0 km/h (5 Bft) 100,00 %
16.11.2020 07:40 10,3 C 8,3 C 7,8 C 90 % 1010,4 hPa 0,0 l/m 0 min 2 min 0 W/m 38,6 km/h (5 Bft) 100,00 %
16.11.2020 07:42 10,2 C 8,3 C 7,8 C 90 % 1010,5 hPa 0,0 l/m 0 min 2 min 0 W/m 32,2 km/h (5 Bft) 100,00 %
16.11.2020 07:44 10,2 C 8,3 C 7,8 C 91 % 1010,4 hPa 0,0 l/m 0 min 0 min 0 W/m 16,1 km/h (3 Bft) 100,00 %
16.11.2020 07:46 10,2 C 8,3 C 7,8 C 91 % 1010,5 hPa 0,0 l/m 0 min 0 min 0 W/m 19,3 km/h (3 Bft) 100,00 %
16.11.2020 07:48 10,1 C 8,3 C 7,8 C 91 % 1010,5 hPa 0,0 l/m 0 min 0 min 0 W/m 25,7 km/h (4 Bft) 100,00 %
16.11.2020 07:50 10,1 C 8,9 C 7,8 C 91 % 1010,6 hPa 0,0 l/m 0 min 0 min 0 W/m 16,1 km/h (3 Bft) 100,00 %
16.11.2020 07:52 10,1 C 8,9 C 7,8 C 91 % 1010,6 hPa 0,0 l/m 0 min 0 min 0 W/m 25,7 km/h (4 Bft) 100,00 %
16.11.2020 07:54 10,1 C 8,9 C 7,8 C 91 % 1010,7 hPa 0,0 l/m 0 min 0 min 0 W/m 22,5 km/h (4 Bft) 100,00 %
16.11.2020 07:56 10,1 C 8,9 C 8,4 C 92 % 1010,7 hPa 0,0 l/m 0 min 0 min 0 W/m 22,5 km/h (4 Bft) 100,00 %
16.11.2020 07:58 10,1 C 8,9 C 8,4 C 92 % 1010,8 hPa 0,0 l/m 0 min 0 min 0 W/m 22,5 km/h (4 Bft) 100,00 %
16.11.2020 08:00 10,1 C 8,9 C 8,4 C 92 % 1010,7 hPa 0,0 l/m 0 min 0 min 0 W/m 29,0 km/h (5 Bft) 100,00 %
16.11.2020 08:02 10,1 C 9,4 C 8,4 C 92 % 1010,8 hPa 0,0 l/m 0 min 0 min 2 W/m 29,0 km/h (5 Bft) 100,00 %
16.11.2020 08:04 10,1 C 9,4 C 8,4 C 92 % 1010,9 hPa 0,0 l/m 0 min 0 min 5 W/m 29,0 km/h (5 Bft) 100,00 %
16.11.2020 08:06 10,1 C 9,4 C 8,4 C 92 % 1010,8 hPa 0,0 l/m 0 min 0 min 5 W/m 25,7 km/h (4 Bft) 100,00 %
16.11.2020 08:08 10,1 C 9,4 C 8,4 C 92 % 1010,9 hPa 0,0 l/m 0 min 0 min 5 W/m 29,0 km/h (5 Bft) 100,00 %
16.11.2020 08:10 10,1 C 9,4 C 8,4 C 92 % 1010,9 hPa 0,0 l/m 0 min 0 min 5 W/m 19,3 km/h (3 Bft) 100,00 %
16.11.2020 08:12 10,1 C 9,4 C 8,4 C 92 % 1010,9 hPa 0,0 l/m 0 min 0 min 6 W/m 29,0 km/h (5 Bft) 100,00 %
16.11.2020 08:14 10,1 C 9,4 C 8,4 C 92 % 1010,9 hPa 0,0 l/m 0 min 0 min 7 W/m 29,0 km/h (5 Bft) 100,00 %
16.11.2020 08:16 10,1 C 9,4 C 8,4 C 92 % 1011,0 hPa 0,0 l/m 0 min 0 min 7 W/m 22,5 km/h (4 Bft) 98,15 %
16.11.2020 08:18 10,1 C 9,4 C 8,4 C 91 % 1011,0 hPa 0,0 l/m 0 min 0 min 7 W/m 22,5 km/h (4 Bft) 97,96 %
16.11.2020 08:20 10,1 C 8,9 C 8,4 C 91 % 1011,0 hPa 0,0 l/m 0 min 0 min 9 W/m 25,7 km/h (4 Bft) 100,00 %
16.11.2020 08:22 10,1 C 8,9 C 8,4 C 91 % 1011,0 hPa 0,0 l/m 0 min 0 min 11 W/m 16,1 km/h (3 Bft) 97,14 %
16.11.2020 08:24 10,1 C 9,4 C 8,4 C 91 % 1011,0 hPa 0,0 l/m 0 min 0 min 11 W/m 25,7 km/h (4 Bft) 98,15 %
16.11.2020 08:26 10,1 C 8,9 C 8,4 C 91 % 1011,0 hPa 0,0 l/m 0 min 0 min 13 W/m 25,7 km/h (4 Bft) 98,00 %
16.11.2020 08:28 10,1 C 8,9 C 8,4 C 91 % 1011,1 hPa 0,0 l/m 0 min 0 min 12 W/m 12,9 km/h (3 Bft) 100,00 %
16.11.2020 08:30 10,1 C 9,4 C 8,4 C 91 % 1011,1 hPa 0,0 l/m 0 min 0 min 13 W/m 29,0 km/h (5 Bft) 100,00 %
16.11.2020 08:32 10,1 C 9,4 C 8,4 C 91 % 1011,2 hPa 0,0 l/m 0 min 0 min 17 W/m 32,2 km/h (5 Bft) 100,00 %
16.11.2020 08:34 10,1 C 9,4 C 8,4 C 91 % 1011,2 hPa 0,0 l/m 0 min 0 min 21 W/m 32,2 km/h (5 Bft) 97,14 %
16.11.2020 08:36 10,1 C 9,4 C 8,4 C 91 % 1011,2 hPa 0,0 l/m 0 min 0 min 26 W/m 22,5 km/h (4 Bft) 96,30 %
16.11.2020 08:38 10,1 C 9,4 C 8,4 C 91 % 1011,2 hPa 0,0 l/m 0 min 0 min 31 W/m 22,5 km/h (4 Bft) 100,00 %
16.11.2020 08:40 10,1 C 9,4 C 8,4 C 91 % 1011,3 hPa 0,0 l/m 0 min 0 min 27 W/m 22,5 km/h (4 Bft) 100,00 %
16.11.2020 08:42 10,1 C 9,4 C 8,9 C 91 % 1011,3 hPa 0,0 l/m 0 min 0 min 26 W/m 25,7 km/h (4 Bft) 100,00 %
16.11.2020 08:44 10,2 C 9,4 C 8,9 C 91 % 1011,3 hPa 0,0 l/m 0 min 0 min 24 W/m 22,5 km/h (4 Bft) 94,29 %
16.11.2020 08:46 10,2 C 9,4 C 8,9 C 91 % 1011,3 hPa 0,0 l/m 0 min 0 min 19 W/m 25,7 km/h (4 Bft) 98,15 %
16.11.2020 08:48 10,2 C 9,4 C 8,9 C 91 % 1011,3 hPa 0,0 l/m 0 min 0 min 21 W/m 12,9 km/h (3 Bft) 94,00 %
16.11.2020 08:50 10,3 C 9,4 C 8,9 C 91 % 1011,4 hPa 0,0 l/m 0 min 0 min 24 W/m 6,4 km/h (2 Bft) 95,92 %
16.11.2020 08:52 10,3 C 9,4 C 8,9 C 91 % 1011,4 hPa 0,0 l/m 0 min 0 min 23 W/m 25,7 km/h (4 Bft) 100,00 %
16.11.2020 08:54 10,3 C 10,0 C 8,9 C 91 % 1011,5 hPa 0,0 l/m 0 min 0 min 25 W/m 35,4 km/h (5 Bft) 94,34 %
16.11.2020 08:56 10,3 C 10,0 C 8,9 C 91 % 1011,4 hPa 0,0 l/m 0 min 0 min 30 W/m 35,4 km/h (5 Bft) 96,00 %
16.11.2020 08:58 10,3 C 10,0 C 8,9 C 91 % 1011,5 hPa 0,0 l/m 0 min 0 min 18 W/m 38,6 km/h (5 Bft) 93,88 %
16.11.2020 09:00 10,3 C 10,0 C 8,9 C 91 % 1011,5 hPa 0,0 l/m 0 min 0 min 18 W/m 35,4 km/h (5 Bft) 97,14 %
16.11.2020 09:02 10,3 C 10,0 C 8,9 C 91 % 1011,6 hPa 0,0 l/m 0 min 0 min 23 W/m 32,2 km/h (5 Bft) 94,44 %
16.11.2020 09:04 10,4 C 10,0 C 8,9 C 91 % 1011,6 hPa 0,0 l/m 0 min 0 min 21 W/m 29,0 km/h (5 Bft) 95,92 %
16.11.2020 09:06 10,4 C 10,0 C 8,9 C 91 % 1011,6 hPa 0,0 l/m 0 min 0 min 14 W/m 19,3 km/h (3 Bft) 95,92 %
16.11.2020 09:08 10,4 C 10,0 C 8,9 C 91 % 1011,7 hPa 0,0 l/m 0 min 0 min 14 W/m 25,7 km/h (4 Bft) 94,29 %
16.11.2020 09:10 10,4 C 10,0 C 8,9 C 91 % 1011,8 hPa 0,0 l/m 0 min 0 min 19 W/m 32,2 km/h (5 Bft) 95,74 %
16.11.2020 09:12 10,4 C 10,0 C 8,9 C 91 % 1011,8 hPa 0,0 l/m 0 min 0 min 27 W/m 25,7 km/h (4 Bft) 96,30 %
16.11.2020 09:14 10,4 C 10,0 C 8,9 C 91 % 1011,8 hPa 0,0 l/m 0 min 0 min 35 W/m 25,7 km/h (4 Bft) 96,00 %
16.11.2020 09:16 10,4 C 10,0 C 8,9 C 91 % 1012,0 hPa 0,0 l/m 0 min 0 min 31 W/m 32,2 km/h (5 Bft) 93,75 %
16.11.2020 09:18 10,4 C 10,0 C 8,9 C 91 % 1011,9 hPa 0,0 l/m 0 min 0 min 29 W/m 32,2 km/h (5 Bft) 100,00 %
16.11.2020 09:20 10,4 C 10,0 C 8,9 C 91 % 1011,8 hPa 0,0 l/m 0 min 0 min 26 W/m 29,0 km/h (5 Bft) 94,44 %
16.11.2020 09:22 10,4 C 10,0 C 8,9 C 91 % 1011,8 hPa 0,0 l/m 0 min 0 min 23 W/m 29,0 km/h (5 Bft) 96,00 %
16.11.2020 09:24 10,4 C 10,0 C 8,9 C 91 % 1011,9 hPa 0,0 l/m 0 min 0 min 23 W/m 22,5 km/h (4 Bft) 95,92 %
16.11.2020 09:26 10,4 C 10,0 C 8,9 C 91 % 1011,9 hPa 0,0 l/m 0 min 0 min 23 W/m 35,4 km/h (5 Bft) 97,14 %
16.11.2020 09:28 10,4 C 10,0 C 8,9 C 91 % 1011,8 hPa 0,0 l/m 0 min 0 min 23 W/m 25,7 km/h (4 Bft) 94,34 %
16.11.2020 09:30 10,4 C 10,0 C 8,9 C 90 % 1012,0 hPa 0,0 l/m 0 min 0 min 24 W/m 29,0 km/h (5 Bft) 92,68 %
16.11.2020 09:32 10,4 C 10,0 C 8,9 C 90 % 1012,0 hPa 0,0 l/m 0 min 0 min 25 W/m 12,9 km/h (3 Bft) 94,64 %
16.11.2020 09:34 10,4 C 10,0 C 8,9 C 90 % 1011,9 hPa 0,0 l/m 0 min 0 min 25 W/m 32,2 km/h (5 Bft) 97,96 %
16.11.2020 09:36 10,4 C 10,0 C 8,9 C 90 % 1012,0 hPa 0,0 l/m 0 min 0 min 25 W/m 22,5 km/h (4 Bft) 94,29 %
16.11.2020 09:38 10,4 C 10,0 C 8,9 C 90 % 1012,0 hPa 0,0 l/m 0 min 0 min 26 W/m 35,4 km/h (5 Bft) 98,15 %
16.11.2020 09:40 10,4 C 10,0 C 8,9 C 90 % 1012,0 hPa 0,0 l/m 0 min 0 min 26 W/m 22,5 km/h (4 Bft) 97,83 %
16.11.2020 09:42 10,5 C 10,0 C 8,9 C 90 % 1012,1 hPa 0,0 l/m 0 min 0 min 27 W/m 25,7 km/h (4 Bft) 98,00 %
16.11.2020 09:44 10,5 C 10,0 C 8,9 C 90 % 1012,1 hPa 0,0 l/m 0 min 0 min 28 W/m 25,7 km/h (4 Bft) 97,96 %
16.11.2020 09:46 10,5 C 10,0 C 9,5 C 90 % 1012,1 hPa 0,0 l/m 0 min 0 min 30 W/m 25,7 km/h (4 Bft) 97,14 %
16.11.2020 09:48 10,5 C 10,0 C 9,5 C 90 % 1012,2 hPa 0,0 l/m 0 min 0 min 32 W/m 25,7 km/h (4 Bft) 98,15 %
16.11.2020 09:50 10,6 C 10,6 C 9,5 C 90 % 1012,2 hPa 0,0 l/m 0 min 0 min 34 W/m 29,0 km/h (5 Bft) 98,04 %
16.11.2020 09:52 10,6 C 10,6 C 9,5 C 90 % 1012,2 hPa 0,0 l/m 0 min 0 min 37 W/m 38,6 km/h (5 Bft) 97,22 %
16.11.2020 09:54 10,6 C 10,6 C 9,5 C 89 % 1012,3 hPa 0,0 l/m 0 min 0 min 46 W/m 29,0 km/h (5 Bft) 98,21 %
16.11.2020 09:56 10,6 C 10,6 C 10,0 C 89 % 1012,3 hPa 0,0 l/m 0 min 0 min 70 W/m 35,4 km/h (5 Bft) 97,30 %
16.11.2020 09:58 10,7 C 10,6 C 10,0 C 89 % 1012,4 hPa 0,0 l/m 0 min 0 min 92 W/m 35,4 km/h (5 Bft) 98,31 %
16.11.2020 10:00 10,8 C 10,6 C 10,0 C 89 % 1012,4 hPa 0,0 l/m 0 min 0 min 71 W/m 29,0 km/h (5 Bft) 97,37 %
16.11.2020 10:02 10,8 C 10,6 C 10,0 C 89 % 1012,4 hPa 0,0 l/m 0 min 0 min 53 W/m 32,2 km/h (5 Bft) 96,36 %
16.11.2020 10:04 10,9 C 10,6 C 10,0 C 89 % 1012,4 hPa 0,0 l/m 0 min 0 min 62 W/m 19,3 km/h (3 Bft) 100,00 %
16.11.2020 10:06 10,9 C 10,6 C 10,0 C 89 % 1012,4 hPa 0,0 l/m 0 min 0 min 90 W/m 35,4 km/h (5 Bft) 94,23 %
16.11.2020 10:08 10,9 C 10,6 C 10,0 C 89 % 1012,5 hPa 0,0 l/m 0 min 0 min 97 W/m 25,7 km/h (4 Bft) 98,00 %
16.11.2020 10:10 11,0 C 10,6 C 10,0 C 89 % 1012,5 hPa 0,0 l/m 0 min 0 min 115 W/m 29,0 km/h (5 Bft) 97,87 %
16.11.2020 10:12 11,0 C 11,1 C 10,0 C 88 % 1012,5 hPa 0,0 l/m 0 min 0 min 115 W/m 25,7 km/h (4 Bft) 100,00 %
16.11.2020 10:14 11,0 C 10,6 C 10,0 C 88 % 1012,5 hPa 0,0 l/m 0 min 0 min 83 W/m 51,5 km/h (7 Bft) 95,74 %
16.11.2020 10:16 11,0 C 10,6 C 10,0 C 88 % 1012,6 hPa 0,0 l/m 0 min 0 min 73 W/m 16,1 km/h (3 Bft) 50,00 %
16.11.2020 10:18 11,1 C 10,6 C 10,0 C 88 % 1012,6 hPa 0,0 l/m 0 min 0 min 45 W/m 25,7 km/h (4 Bft) 97,37 %
16.11.2020 10:20 11,1 C 10,6 C 10,0 C 88 % 1012,7 hPa 0,0 l/m 0 min 0 min 34 W/m 38,6 km/h (5 Bft) 97,87 %
16.11.2020 10:22 11,1 C 10,6 C 10,0 C 88 % 1012,7 hPa 0,0 l/m 0 min 0 min 60 W/m 16,1 km/h (3 Bft) 98,21 %
16.11.2020 10:24 11,1 C 10,6 C 10,0 C 88 % 1012,7 hPa 0,0 l/m 0 min 0 min 64 W/m 35,4 km/h (5 Bft) 97,37 %
16.11.2020 10:26 11,1 C 10,6 C 10,0 C 88 % 1012,7 hPa 0,0 l/m 0 min 0 min 69 W/m 35,4 km/h (5 Bft) 97,87 %
16.11.2020 10:28 11,1 C 10,6 C 10,0 C 88 % 1012,8 hPa 0,0 l/m 0 min 0 min 68 W/m 29,0 km/h (5 Bft) 100,00 %
16.11.2020 10:30 11,1 C 10,6 C 10,0 C 88 % 1012,8 hPa 0,0 l/m 0 min 0 min 68 W/m 32,2 km/h (5 Bft) 100,00 %
16.11.2020 10:32 11,1 C 10,6 C 10,0 C 88 % 1012,8 hPa 0,0 l/m 0 min 0 min 89 W/m 32,2 km/h (5 Bft) 100,00 %
16.11.2020 10:34 11,1 C 10,6 C 10,0 C 88 % 1012,8 hPa 0,0 l/m 0 min 0 min 77 W/m 29,0 km/h (5 Bft) 100,00 %
16.11.2020 10:36 11,1 C 10,6 C 10,0 C 88 % 1012,9 hPa 0,0 l/m 0 min 0 min 64 W/m 35,4 km/h (5 Bft) 100,00 %
16.11.2020 10:38 11,1 C 10,6 C 10,0 C 88 % 1012,9 hPa 0,0 l/m 0 min 0 min 61 W/m 51,5 km/h (7 Bft) 100,00 %
16.11.2020 10:40 11,1 C 10,6 C 10,0 C 88 % 1013,0 hPa 0,0 l/m 0 min 0 min 61 W/m 29,0 km/h (5 Bft) 97,83 %
16.11.2020 10:42 11,1 C 10,6 C 10,0 C 88 % 1013,0 hPa 0,0 l/m 0 min 0 min 45 W/m 32,2 km/h (5 Bft) 100,00 %
16.11.2020 10:44 11,1 C 10,6 C 10,0 C 89 % 1013,1 hPa 0,0 l/m 0 min 0 min 68 W/m 29,0 km/h (5 Bft) 98,00 %
16.11.2020 10:46 11,1 C 10,6 C 10,0 C 89 % 1013,2 hPa 0,0 l/m 0 min 0 min 67 W/m 25,7 km/h (4 Bft) 94,44 %
16.11.2020 10:48 11,1 C 10,6 C 10,0 C 89 % 1013,1 hPa 0,0 l/m 0 min 0 min 71 W/m 45,1 km/h (6 Bft) 100,00 %
16.11.2020 10:50 11,1 C 10,6 C 10,0 C 89 % 1013,2 hPa 0,0 l/m 0 min 0 min 58 W/m 41,8 km/h (6 Bft) 96,30 %
16.11.2020 10:52 11,1 C 10,6 C 10,0 C 89 % 1013,2 hPa 0,0 l/m 0 min 0 min 47 W/m 61,2 km/h (7 Bft) 100,00 %
16.11.2020 10:54 11,1 C 10,6 C 10,0 C 89 % 1013,3 hPa 0,0 l/m 0 min 0 min 48 W/m 41,8 km/h (6 Bft) 100,00 %
16.11.2020 10:56 11,1 C 10,6 C 10,0 C 89 % 1013,4 hPa 0,0 l/m 0 min 0 min 44 W/m 38,6 km/h (5 Bft) 100,00 %
16.11.2020 10:58 11,1 C 10,6 C 10,0 C 89 % 1013,3 hPa 0,0 l/m 0 min 0 min 53 W/m 32,2 km/h (5 Bft) 100,00 %
16.11.2020 11:00 11,1 C 10,6 C 10,0 C 89 % 1013,4 hPa 0,0 l/m 0 min 0 min 51 W/m 32,2 km/h (5 Bft) 100,00 %
16.11.2020 11:02 11,1 C 10,6 C 10,0 C 89 % 1013,4 hPa 0,0 l/m 0 min 0 min 62 W/m 25,7 km/h (4 Bft) 97,22 %
16.11.2020 11:04 11,1 C 10,6 C 10,0 C 89 % 1013,4 hPa 0,0 l/m 0 min 0 min 47 W/m 25,7 km/h (4 Bft) 100,00 %
16.11.2020 11:06 11,1 C 10,6 C 10,0 C 89 % 1013,4 hPa 0,0 l/m 0 min 0 min 44 W/m 25,7 km/h (4 Bft) 98,18 %
16.11.2020 11:08 11,1 C 10,6 C 10,0 C 90 % 1013,4 hPa 0,0 l/m 0 min 0 min 52 W/m 29,0 km/h (5 Bft) 100,00 %
16.11.2020 11:10 11,1 C 10,6 C 10,0 C 90 % 1013,4 hPa 0,0 l/m 0 min 0 min 64 W/m 25,7 km/h (4 Bft) 97,87 %
16.11.2020 11:12 11,1 C 10,6 C 10,0 C 90 % 1013,4 hPa 0,0 l/m 0 min 0 min 52 W/m 35,4 km/h (5 Bft) 97,96 %
16.11.2020 11:14 11,1 C 10,6 C 10,0 C 90 % 1013,4 hPa 0,0 l/m 0 min 0 min 73 W/m 38,6 km/h (5 Bft) 100,00 %
16.11.2020 11:16 11,1 C 10,6 C 10,0 C 90 % 1013,5 hPa 0,0 l/m 0 min 0 min 68 W/m 19,3 km/h (3 Bft) 100,00 %
16.11.2020 11:18 11,1 C 10,6 C 10,0 C 90 % 1013,6 hPa 0,0 l/m 0 min 0 min 57 W/m 19,3 km/h (3 Bft) 100,00 %
16.11.2020 11:20 11,1 C 10,6 C 10,0 C 90 % 1013,6 hPa 0,0 l/m 0 min 0 min 76 W/m 19,3 km/h (3 Bft) 98,00 %
16.11.2020 11:22 11,1 C 11,1 C 10,0 C 90 % 1013,6 hPa 0,0 l/m 0 min 0 min 73 W/m 25,7 km/h (4 Bft) 100,00 %
16.11.2020 11:24 11,2 C 11,1 C 10,6 C 90 % 1013,6 hPa 0,0 l/m 0 min 0 min 109 W/m 32,2 km/h (5 Bft) 100,00 %
16.11.2020 11:26 11,2 C 11,1 C 10,6 C 90 % 1013,8 hPa 0,0 l/m 2 min 0 min 164 W/m 25,7 km/h (4 Bft) 98,15 %
16.11.2020 11:28 11,3 C 11,7 C 10,6 C 90 % 1013,8 hPa 0,0 l/m 0 min 0 min 145 W/m 16,1 km/h (3 Bft) 98,00 %
16.11.2020 11:30 11,3 C 11,1 C 10,6 C 90 % 1013,7 hPa 0,0 l/m 0 min 0 min 129 W/m 32,2 km/h (5 Bft) 94,44 %
16.11.2020 11:32 11,4 C 11,1 C 10,6 C 90 % 1013,8 hPa 0,0 l/m 0 min 0 min 110 W/m 29,0 km/h (5 Bft) 95,74 %
16.11.2020 11:34 11,4 C 11,1 C 10,6 C 90 % 1013,8 hPa 0,0 l/m 0 min 0 min 115 W/m 29,0 km/h (5 Bft) 98,15 %
16.11.2020 11:36 11,4 C 11,1 C 10,6 C 90 % 1013,7 hPa 0,0 l/m 0 min 0 min 102 W/m 32,2 km/h (5 Bft) 96,00 %
16.11.2020 11:38 11,4 C 11,1 C 10,6 C 90 % 1013,9 hPa 0,0 l/m 0 min 0 min 90 W/m 38,6 km/h (5 Bft) 97,22 %
16.11.2020 11:40 11,5 C 11,1 C 10,6 C 90 % 1013,9 hPa 0,0 l/m 0 min 0 min 90 W/m 25,7 km/h (4 Bft) 95,74 %
16.11.2020 11:42 11,5 C 11,1 C 10,6 C 90 % 1013,9 hPa 0,0 l/m 0 min 0 min 99 W/m 22,5 km/h (4 Bft) 98,15 %
16.11.2020 11:44 11,5 C 11,1 C 10,6 C 90 % 1013,9 hPa 0,0 l/m 0 min 0 min 91 W/m 16,1 km/h (3 Bft) 98,00 %
16.11.2020 11:46 11,5 C 11,7 C 10,6 C 90 % 1014,0 hPa 0,0 l/m 0 min 0 min 99 W/m 25,7 km/h (4 Bft) 94,59 %
16.11.2020 11:48 11,6 C 11,7 C 10,6 C 90 % 1014,0 hPa 0,0 l/m 0 min 0 min 109 W/m 3,2 km/h (1 Bft) 95,74 %
16.11.2020 11:50 11,6 C 11,7 C 10,6 C 90 % 1014,0 hPa 0,0 l/m 0 min 0 min 79 W/m 32,2 km/h (5 Bft) 96,30 %
16.11.2020 11:52 11,6 C 11,1 C 10,6 C 90 % 1014,0 hPa 0,0 l/m 0 min 0 min 64 W/m 38,6 km/h (5 Bft) 94,00 %
16.11.2020 11:54 11,6 C 11,1 C 10,6 C 90 % 1014,0 hPa 0,0 l/m 0 min 0 min 71 W/m 35,4 km/h (5 Bft) 97,22 %
16.11.2020 11:56 11,6 C 11,1 C 10,6 C 90 % 1014,0 hPa 0,0 l/m 0 min 0 min 69 W/m 41,8 km/h (6 Bft) 94,44 %
16.11.2020 11:58 11,6 C 11,1 C 10,6 C 89 % 1014,1 hPa 0,0 l/m 0 min 0 min 58 W/m 35,4 km/h (5 Bft) 96,00 %
16.11.2020 12:00 11,7 C 11,1 C 10,6 C 89 % 1014,1 hPa 0,0 l/m 0 min 0 min 49 W/m 35,4 km/h (5 Bft) 94,44 %
16.11.2020 12:02 11,7 C 10,6 C 10,0 C 89 % 1014,1 hPa 0,0 l/m 0 min 0 min 46 W/m 35,4 km/h (5 Bft) 96,36 %
16.11.2020 12:04 11,7 C 11,1 C 10,0 C 90 % 1014,2 hPa 0,0 l/m 0 min 0 min 50 W/m 22,5 km/h (4 Bft) 94,87 %
16.11.2020 12:08 11,6 C 11,1 C 10,0 C 90 % 1014,2 hPa 0,0 l/m 0 min 0 min 38 W/m 41,8 km/h (6 Bft) 95,05 %
16.11.2020 12:10 11,6 C 10,6 C 10,0 C 90 % 1014,3 hPa 0,0 l/m 0 min 0 min 45 W/m 29,0 km/h (5 Bft) 96,00 %
16.11.2020 12:12 11,6 C 10,6 C 10,0 C 90 % 1014,2 hPa 0,0 l/m 0 min 0 min 56 W/m 19,3 km/h (3 Bft) 97,22 %
16.11.2020 12:14 11,6 C 11,1 C 10,0 C 90 % 1014,3 hPa 0,0 l/m 0 min 0 min 62 W/m 12,9 km/h (3 Bft) 98,15 %
16.11.2020 12:16 11,6 C 11,1 C 10,0 C 90 % 1014,3 hPa 0,0 l/m 0 min 0 min 47 W/m 22,5 km/h (4 Bft) 98,00 %
16.11.2020 12:18 11,6 C 11,1 C 10,0 C 90 % 1014,3 hPa 0,0 l/m 0 min 0 min 47 W/m 12,9 km/h (3 Bft) 97,30 %
16.11.2020 12:20 11,6 C 11,1 C 10,6 C 90 % 1014,3 hPa 0,0 l/m 0 min 0 min 58 W/m 16,1 km/h (3 Bft) 97,87 %
16.11.2020 12:22 11,6 C 11,1 C 10,6 C 90 % 1014,4 hPa 0,0 l/m 0 min 0 min 54 W/m 19,3 km/h (3 Bft) 98,18 %
16.11.2020 12:24 11,6 C 11,1 C 10,0 C 90 % 1014,4 hPa 0,0 l/m 0 min 0 min 54 W/m 16,1 km/h (3 Bft) 100,00 %
16.11.2020 12:26 11,6 C 11,1 C 10,6 C 90 % 1014,4 hPa 0,0 l/m 0 min 0 min 50 W/m 19,3 km/h (3 Bft) 98,15 %
16.11.2020 12:28 11,6 C 11,1 C 10,6 C 90 % 1014,5 hPa 0,0 l/m 0 min 0 min 51 W/m 25,7 km/h (4 Bft) 98,00 %
16.11.2020 12:30 11,6 C 11,1 C 10,6 C 90 % 1014,4 hPa 0,0 l/m 0 min 0 min 48 W/m 25,7 km/h (4 Bft) 97,30 %
16.11.2020 12:32 11,6 C 11,1 C 10,6 C 90 % 1014,5 hPa 0,0 l/m 0 min 0 min 54 W/m 16,1 km/h (3 Bft) 96,30 %
16.11.2020 12:34 11,6 C 11,1 C 10,6 C 90 % 1014,4 hPa 0,0 l/m 0 min 0 min 52 W/m 25,7 km/h (4 Bft) 93,62 %
16.11.2020 12:36 11,6 C 11,1 C 10,6 C 90 % 1014,5 hPa 0,0 l/m 0 min 0 min 50 W/m 25,7 km/h (4 Bft) 100,00 %
16.11.2020 12:38 11,6 C 11,1 C 10,6 C 90 % 1014,6 hPa 0,0 l/m 0 min 0 min 46 W/m 29,0 km/h (5 Bft) 96,30 %
16.11.2020 12:40 11,7 C 11,1 C 10,6 C 90 % 1014,5 hPa 0,0 l/m 0 min 0 min 47 W/m 29,0 km/h (5 Bft) 98,04 %
16.11.2020 12:42 11,6 C 11,1 C 10,6 C 90 % 1014,5 hPa 0,0 l/m 0 min 0 min 60 W/m 29,0 km/h (5 Bft) 97,22 %
16.11.2020 12:44 11,7 C 11,1 C 10,6 C 90 % 1014,5 hPa 0,0 l/m 0 min 0 min 52 W/m 12,9 km/h (3 Bft) 100,00 %
16.11.2020 12:46 11,7 C 11,1 C 10,6 C 90 % 1014,5 hPa 0,0 l/m 0 min 0 min 54 W/m 22,5 km/h (4 Bft) 100,00 %
16.11.2020 12:48 11,7 C 11,1 C 10,6 C 90 % 1014,6 hPa 0,0 l/m 0 min 0 min 47 W/m 25,7 km/h (4 Bft) 100,00 %
16.11.2020 12:50 11,8 C 11,1 C 10,6 C 90 % 1014,6 hPa 0,0 l/m 0 min 0 min 55 W/m 45,1 km/h (6 Bft) 100,00 %
16.11.2020 12:52 11,8 C 11,1 C 10,6 C 90 % 1014,7 hPa 0,0 l/m 0 min 0 min 57 W/m 35,4 km/h (5 Bft) 100,00 %
16.11.2020 12:54 11,8 C 11,1 C 10,6 C 90 % 1014,6 hPa 0,0 l/m 0 min 0 min 52 W/m 3,2 km/h (1 Bft) 97,22 %
16.11.2020 12:56 11,8 C 11,1 C 10,6 C 90 % 1014,6 hPa 0,0 l/m 0 min 0 min 58 W/m 16,1 km/h (3 Bft) 98,15 %
16.11.2020 12:58 11,8 C 11,1 C 10,6 C 90 % 1014,6 hPa 0,0 l/m 0 min 0 min 60 W/m 12,9 km/h (3 Bft) 97,44 %
16.11.2020 13:00 11,8 C 11,7 C 10,6 C 90 % 1014,6 hPa 0,0 l/m 0 min 0 min 56 W/m 19,3 km/h (3 Bft) 98,00 %
16.11.2020 13:02 11,8 C 11,7 C 10,6 C 90 % 1014,6 hPa 0,0 l/m 0 min 0 min 73 W/m 19,3 km/h (3 Bft) 96,36 %
16.11.2020 13:04 11,8 C 11,7 C 10,6 C 90 % 1014,6 hPa 0,0 l/m 0 min 0 min 70 W/m 19,3 km/h (3 Bft) 97,37 %
16.11.2020 13:06 11,8 C 11,7 C 10,6 C 91 % 1014,6 hPa 0,0 l/m 0 min 0 min 57 W/m 32,2 km/h (5 Bft) 97,92 %
16.11.2020 13:08 11,8 C 11,7 C 10,6 C 91 % 1014,6 hPa 0,0 l/m 0 min 0 min 43 W/m 6,4 km/h (2 Bft) 97,87 %
16.11.2020 13:10 11,8 C 11,7 C 10,6 C 91 % 1014,6 hPa 0,0 l/m 0 min 0 min 46 W/m 32,2 km/h (5 Bft) 97,67 %
16.11.2020 13:12 11,8 C 11,7 C 10,6 C 90 % 1014,7 hPa 0,0 l/m 0 min 0 min 44 W/m 19,3 km/h (3 Bft) 98,00 %
16.11.2020 13:14 11,9 C 11,7 C 10,6 C 90 % 1014,7 hPa 0,0 l/m 0 min 0 min 43 W/m 16,1 km/h (3 Bft) 98,15 %
16.11.2020 13:16 11,9 C 11,7 C 10,6 C 90 % 1014,7 hPa 0,0 l/m 0 min 0 min 37 W/m 3,2 km/h (1 Bft) 97,44 %
16.11.2020 13:18 11,9 C 11,7 C 10,6 C 90 % 1014,7 hPa 0,0 l/m 0 min 0 min 34 W/m 16,1 km/h (3 Bft) 97,92 %
16.11.2020 13:20 11,9 C 11,7 C 10,6 C 90 % 1014,7 hPa 0,0 l/m 0 min 0 min 30 W/m 22,5 km/h (4 Bft) 98,11 %
16.11.2020 13:22 11,9 C 11,7 C 10,6 C 90 % 1014,7 hPa 0,0 l/m 0 min 0 min 30 W/m 19,3 km/h (3 Bft) 97,37 %
16.11.2020 13:24 11,9 C 11,7 C 10,6 C 90 % 1014,8 hPa 0,0 l/m 0 min 0 min 32 W/m 19,3 km/h (3 Bft) 97,96 %
16.11.2020 13:26 11,9 C 11,1 C 10,6 C 90 % 1014,8 hPa 0,0 l/m 0 min 0 min 35 W/m 9,7 km/h (2 Bft) 96,30 %
16.11.2020 13:28 11,9 C 10,6 C 10,0 C 90 % 1014,8 hPa 0,0 l/m 0 min 2 min 35 W/m 22,5 km/h (4 Bft) 97,44 %
16.11.2020 13:30 11,9 C 10,6 C 10,0 C 90 % 1014,7 hPa 0,0 l/m 0 min 2 min 29 W/m 16,1 km/h (3 Bft) 95,83 %
16.11.2020 13:32 12,0 C 10,6 C 10,0 C 90 % 1014,9 hPa 0,0 l/m 0 min 2 min 31 W/m 16,1 km/h (3 Bft) 94,34 %
16.11.2020 13:34 12,0 C 10,0 C 9,5 C 90 % 1014,9 hPa 0,0 l/m 0 min 2 min 35 W/m 29,0 km/h (5 Bft) 100,00 %
16.11.2020 13:36 11,9 C 10,0 C 9,5 C 90 % 1014,9 hPa 0,0 l/m 0 min 2 min 40 W/m 9,7 km/h (2 Bft) 96,43 %
16.11.2020 13:38 11,9 C 10,0 C 9,5 C 91 % 1014,9 hPa 0,0 l/m 0 min 2 min 32 W/m 22,5 km/h (4 Bft) 97,37 %
16.11.2020 13:40 11,9 C 10,0 C 9,5 C 91 % 1015,0 hPa 0,0 l/m 0 min 2 min 26 W/m 9,7 km/h (2 Bft) 97,92 %
16.11.2020 13:42 11,9 C 10,0 C 9,5 C 91 % 1014,9 hPa 0,0 l/m 0 min 2 min 32 W/m 22,5 km/h (4 Bft) 98,15 %
16.11.2020 13:44 11,9 C 10,0 C 9,5 C 91 % 1015,0 hPa 0,0 l/m 0 min 0 min 48 W/m 16,1 km/h (3 Bft) 97,50 %
16.11.2020 13:46 11,9 C 10,0 C 9,5 C 91 % 1015,0 hPa 0,0 l/m 0 min 0 min 43 W/m 9,7 km/h (2 Bft) 98,15 %
16.11.2020 13:48 11,9 C 10,0 C 9,5 C 92 % 1015,1 hPa 0,2 l/m 0 min 2 min 35 W/m 19,3 km/h (3 Bft) 97,44 %
16.11.2020 13:50 11,9 C 10,0 C 9,5 C 92 % 1015,1 hPa 0,0 l/m 0 min 2 min 37 W/m 9,7 km/h (2 Bft) 96,36 %
16.11.2020 13:52 11,8 C 10,0 C 9,5 C 92 % 1015,1 hPa 0,0 l/m 0 min 2 min 43 W/m 9,7 km/h (2 Bft) 97,44 %
16.11.2020 13:54 11,8 C 10,0 C 9,5 C 92 % 1015,1 hPa 0,0 l/m 0 min 0 min 61 W/m 3,2 km/h (1 Bft) 97,87 %
16.11.2020 13:56 11,8 C 10,0 C 9,5 C 92 % 1015,1 hPa 0,0 l/m 0 min 0 min 60 W/m 6,4 km/h (2 Bft) 100,00 %
16.11.2020 13:58 11,8 C 10,0 C 9,5 C 93 % 1015,2 hPa 0,0 l/m 0 min 0 min 37 W/m 3,2 km/h (1 Bft) 100,00 %
16.11.2020 14:00 11,8 C 10,0 C 9,5 C 93 % 1015,2 hPa 0,0 l/m 0 min 0 min 33 W/m 0,0 km/h (0 Bft) 100,00 %
16.11.2020 14:02 11,7 C 10,0 C 9,5 C 93 % 1015,2 hPa 0,0 l/m 0 min 0 min 23 W/m 6,4 km/h (2 Bft) 98,25 %
16.11.2020 14:04 11,7 C 10,0 C 9,5 C 93 % 1015,2 hPa 0,0 l/m 0 min 0 min 29 W/m 3,2 km/h (1 Bft) 97,44 %
16.11.2020 14:06 11,6 C 10,0 C 9,5 C 93 % 1015,2 hPa 0,0 l/m 0 min 0 min 29 W/m 12,9 km/h (3 Bft) 100,00 %
16.11.2020 14:08 11,6 C 10,0 C 9,5 C 93 % 1015,2 hPa 0,0 l/m 0 min 0 min 36 W/m 12,9 km/h (3 Bft) 98,15 %
16.11.2020 14:10 11,6 C 10,0 C 9,5 C 93 % 1015,2 hPa 0,0 l/m 0 min 0 min 38 W/m 25,7 km/h (4 Bft) 97,37 %
16.11.2020 14:12 11,5 C 10,0 C 9,5 C 93 % 1015,2 hPa 0,0 l/m 0 min 0 min 47 W/m 16,1 km/h (3 Bft) 97,92 %
16.11.2020 14:14 11,5 C 10,0 C 9,5 C 94 % 1015,2 hPa 0,0 l/m 0 min 0 min 65 W/m 29,0 km/h (5 Bft) 96,30 %
16.11.2020 14:16 11,4 C 10,0 C 9,5 C 93 % 1015,2 hPa 0,0 l/m 0 min 0 min 56 W/m 19,3 km/h (3 Bft) 94,74 %
16.11.2020 14:18 11,4 C 10,0 C 9,5 C 94 % 1015,3 hPa 0,0 l/m 0 min 0 min 73 W/m 3,2 km/h (1 Bft) 97,96 %
16.11.2020 14:20 11,4 C 10,6 C 10,0 C 94 % 1015,3 hPa 0,0 l/m 0 min 0 min 99 W/m 6,4 km/h (2 Bft) 97,83 %
16.11.2020 14:22 11,4 C 11,1 C 10,0 C 94 % 1015,3 hPa 0,0 l/m 2 min 0 min 153 W/m 6,4 km/h (2 Bft) 95,56 %
16.11.2020 14:24 11,4 C 11,7 C 10,0 C 94 % 1015,4 hPa 0,0 l/m 2 min 0 min 192 W/m 19,3 km/h (3 Bft) 95,92 %
16.11.2020 14:26 11,4 C 12,2 C 10,0 C 94 % 1015,4 hPa 0,0 l/m 2 min 0 min 265 W/m 12,9 km/h (3 Bft) 97,87 %
16.11.2020 14:28 11,5 C 12,2 C 10,6 C 95 % 1015,4 hPa 0,0 l/m 2 min 0 min 250 W/m 22,5 km/h (4 Bft) 97,78 %
16.11.2020 14:30 11,5 C 12,8 C 10,6 C 95 % 1015,4 hPa 0,0 l/m 2 min 0 min 274 W/m 29,0 km/h (5 Bft) 93,75 %
16.11.2020 14:32 11,5 C 12,8 C 10,6 C 95 % 1015,4 hPa 0,0 l/m 2 min 0 min 224 W/m 6,4 km/h (2 Bft) 98,15 %
16.11.2020 14:34 11,5 C 12,2 C 10,6 C 95 % 1015,4 hPa 0,0 l/m 2 min 0 min 173 W/m 19,3 km/h (3 Bft) 89,47 %
16.11.2020 14:36 11,6 C 12,8 C 10,6 C 95 % 1015,5 hPa 0,0 l/m 2 min 0 min 222 W/m 19,3 km/h (3 Bft) 95,92 %
16.11.2020 14:38 11,6 C 13,3 C 10,6 C 95 % 1015,5 hPa 0,0 l/m 2 min 0 min 216 W/m 6,4 km/h (2 Bft) 97,87 %
16.11.2020 14:40 11,6 C 13,3 C 10,6 C 95 % 1015,6 hPa 0,0 l/m 2 min 0 min 242 W/m 16,1 km/h (3 Bft) 98,15 %
16.11.2020 14:42 11,7 C 12,2 C 10,6 C 95 % 1015,7 hPa 0,0 l/m 2 min 0 min 244 W/m 12,9 km/h (3 Bft) 97,50 %
16.11.2020 14:44 11,7 C 11,7 C 10,6 C 95 % 1015,8 hPa 0,2 l/m 0 min 0 min 88 W/m 22,5 km/h (4 Bft) 96,23 %
16.11.2020 14:46 11,8 C 11,1 C 10,6 C 95 % 1015,7 hPa 0,0 l/m 0 min 0 min 50 W/m 12,9 km/h (3 Bft) 95,00 %
16.11.2020 14:48 11,8 C 11,1 C 10,0 C 95 % 1015,8 hPa 0,0 l/m 0 min 0 min 35 W/m 6,4 km/h (2 Bft) 92,45 %
16.11.2020 14:50 11,8 C 11,1 C 10,0 C 95 % 1015,8 hPa 0,0 l/m 0 min 0 min 27 W/m 6,4 km/h (2 Bft) 97,50 %
16.11.2020 14:52 11,8 C 11,1 C 10,0 C 95 % 1015,9 hPa 0,0 l/m 0 min 0 min 45 W/m 12,9 km/h (3 Bft) 95,83 %
16.11.2020 14:54 11,8 C 11,1 C 10,0 C 94 % 1015,8 hPa 0,0 l/m 0 min 0 min 50 W/m 32,2 km/h (5 Bft) 97,73 %
16.11.2020 14:56 11,7 C 11,1 C 10,0 C 94 % 1015,9 hPa 0,0 l/m 0 min 0 min 52 W/m 22,5 km/h (4 Bft) 95,92 %
16.11.2020 14:58 11,7 C 11,1 C 10,0 C 94 % 1015,9 hPa 0,0 l/m 0 min 0 min 49 W/m 38,6 km/h (5 Bft) 97,73 %
16.11.2020 15:00 11,7 C 11,1 C 10,0 C 93 % 1016,0 hPa 0,0 l/m 0 min 0 min 59 W/m 22,5 km/h (4 Bft) 98,00 %
16.11.2020 15:02 11,8 C 11,1 C 10,0 C 93 % 1016,0 hPa 0,0 l/m 0 min 0 min 47 W/m 38,6 km/h (5 Bft) 98,18 %
16.11.2020 15:04 11,8 C 11,7 C 10,6 C 93 % 1016,0 hPa 0,0 l/m 2 min 0 min 107 W/m 3,2 km/h (1 Bft) 97,44 %
16.11.2020 15:06 11,8 C 11,1 C 10,0 C 93 % 1016,1 hPa 0,0 l/m 0 min 0 min 32 W/m 32,2 km/h (5 Bft) 98,08 %
16.11.2020 15:08 11,8 C 11,1 C 10,0 C 92 % 1016,2 hPa 0,0 l/m 0 min 0 min 31 W/m 22,5 km/h (4 Bft) 98,00 %
16.11.2020 15:10 11,8 C 11,1 C 10,0 C 91 % 1016,2 hPa 0,0 l/m 0 min 0 min 36 W/m 12,9 km/h (3 Bft) 97,22 %
16.11.2020 15:12 11,9 C 11,1 C 10,0 C 91 % 1016,2 hPa 0,0 l/m 0 min 0 min 30 W/m 12,9 km/h (3 Bft) 97,96 %
16.11.2020 15:14 11,9 C 10,6 C 10,0 C 91 % 1016,2 hPa 0,0 l/m 0 min 0 min 26 W/m 35,4 km/h (5 Bft) 97,87 %
16.11.2020 15:16 11,9 C 10,6 C 10,0 C 91 % 1016,2 hPa 0,0 l/m 0 min 0 min 19 W/m 3,2 km/h (1 Bft) 97,73 %
16.11.2020 15:18 11,9 C 11,1 C 10,0 C 91 % 1016,2 hPa 0,0 l/m 0 min 0 min 23 W/m 12,9 km/h (3 Bft) 97,96 %
16.11.2020 15:20 11,9 C 11,1 C 10,0 C 90 % 1016,2 hPa 0,0 l/m 0 min 0 min 15 W/m 19,3 km/h (3 Bft) 95,45 %
16.11.2020 15:22 11,9 C 10,6 C 10,0 C 90 % 1016,3 hPa 0,0 l/m 0 min 0 min 17 W/m 16,1 km/h (3 Bft) 96,00 %
16.11.2020 15:24 12,0 C 11,1 C 10,0 C 90 % 1016,3 hPa 0,0 l/m 0 min 0 min 35 W/m 12,9 km/h (3 Bft) 96,36 %
16.11.2020 15:26 12,0 C 10,6 C 10,0 C 89 % 1016,3 hPa 0,0 l/m 0 min 0 min 29 W/m 16,1 km/h (3 Bft) 92,11 %
16.11.2020 15:28 12,0 C 10,6 C 10,0 C 89 % 1016,4 hPa 0,0 l/m 0 min 0 min 20 W/m 19,3 km/h (3 Bft) 97,92 %
16.11.2020 15:30 12,0 C 10,6 C 10,0 C 89 % 1016,3 hPa 0,0 l/m 0 min 0 min 19 W/m 19,3 km/h (3 Bft) 98,11 %
16.11.2020 15:32 12,0 C 11,1 C 10,0 C 89 % 1016,4 hPa 0,0 l/m 0 min 0 min 33 W/m 16,1 km/h (3 Bft) 97,50 %
16.11.2020 15:34 12,0 C 11,1 C 10,0 C 89 % 1016,4 hPa 0,0 l/m 0 min 0 min 44 W/m 6,4 km/h (2 Bft) 98,15 %
16.11.2020 15:36 12,0 C 10,6 C 10,0 C 89 % 1016,4 hPa 0,0 l/m 0 min 0 min 34 W/m 16,1 km/h (3 Bft) 97,37 %
16.11.2020 15:38 12,0 C 11,1 C 10,0 C 89 % 1016,4 hPa 0,0 l/m 0 min 0 min 38 W/m 12,9 km/h (3 Bft) 97,96 %
16.11.2020 15:40 12,0 C 10,6 C 10,0 C 88 % 1016,5 hPa 0,0 l/m 0 min 0 min 27 W/m 6,4 km/h (2 Bft) 100,00 %
16.11.2020 15:42 12,0 C 10,6 C 10,0 C 88 % 1016,6 hPa 0,0 l/m 0 min 0 min 19 W/m 19,3 km/h (3 Bft) 100,00 %
16.11.2020 15:44 12,0 C 10,6 C 10,0 C 88 % 1016,6 hPa 0,0 l/m 0 min 0 min 18 W/m 3,2 km/h (1 Bft) 100,00 %
16.11.2020 15:46 12,0 C 10,6 C 10,0 C 88 % 1016,6 hPa 0,0 l/m 0 min 0 min 16 W/m 16,1 km/h (3 Bft) 100,00 %
16.11.2020 15:48 12,0 C 10,6 C 10,0 C 88 % 1016,7 hPa 0,0 l/m 0 min 0 min 16 W/m 6,4 km/h (2 Bft) 100,00 %
16.11.2020 15:50 12,0 C 10,6 C 10,0 C 88 % 1016,7 hPa 0,0 l/m 0 min 0 min 16 W/m 22,5 km/h (4 Bft) 97,44 %
16.11.2020 15:52 12,0 C 10,6 C 10,0 C 88 % 1016,7 hPa 0,0 l/m 0 min 0 min 18 W/m 16,1 km/h (3 Bft) 100,00 %
16.11.2020 15:54 12,0 C 10,6 C 10,0 C 88 % 1016,7 hPa 0,0 l/m 0 min 0 min 19 W/m 22,5 km/h (4 Bft) 100,00 %
16.11.2020 15:56 12,0 C 10,6 C 10,0 C 88 % 1016,7 hPa 0,0 l/m 0 min 0 min 16 W/m 6,4 km/h (2 Bft) 98,18 %
16.11.2020 15:58 12,0 C 10,6 C 10,0 C 88 % 1016,8 hPa 0,0 l/m 0 min 0 min 16 W/m 12,9 km/h (3 Bft) 100,00 %
16.11.2020 16:00 11,9 C 10,6 C 10,0 C 88 % 1016,8 hPa 0,0 l/m 0 min 0 min 14 W/m 6,4 km/h (2 Bft) 100,00 %
16.11.2020 16:02 11,9 C 10,6 C 10,0 C 88 % 1016,9 hPa 0,0 l/m 0 min 0 min 11 W/m 16,1 km/h (3 Bft) 100,00 %
16.11.2020 16:04 11,9 C 10,6 C 10,0 C 88 % 1017,0 hPa 0,0 l/m 0 min 0 min 8 W/m 16,1 km/h (3 Bft) 100,00 %
16.11.2020 16:06 11,9 C 10,6 C 10,0 C 88 % 1016,9 hPa 0,0 l/m 0 min 0 min 7 W/m 19,3 km/h (3 Bft) 100,00 %
16.11.2020 16:08 11,9 C 11,1 C 10,0 C 88 % 1017,0 hPa 0,0 l/m 0 min 0 min 7 W/m 16,1 km/h (3 Bft) 100,00 %
16.11.2020 16:10 11,9 C 11,1 C 10,0 C 88 % 1017,0 hPa 0,0 l/m 0 min 0 min 5 W/m 16,1 km/h (3 Bft) 100,00 %
16.11.2020 16:12 11,9 C 11,1 C 10,0 C 88 % 1016,9 hPa 0,0 l/m 0 min 0 min 4 W/m 6,4 km/h (2 Bft) 100,00 %
16.11.2020 16:14 11,9 C 11,1 C 10,0 C 88 % 1017,0 hPa 0,0 l/m 0 min 0 min 0 W/m 6,4 km/h (2 Bft) 100,00 %
16.11.2020 16:16 11,9 C 11,1 C 10,0 C 88 % 1017,0 hPa 0,0 l/m 0 min 0 min 0 W/m 3,2 km/h (1 Bft) 100,00 %
16.11.2020 16:18 11,9 C 11,1 C 10,0 C 88 % 1017,0 hPa 0,0 l/m 0 min 0 min 1 W/m 22,5 km/h (4 Bft) 100,00 %
16.11.2020 16:20 11,9 C 11,1 C 10,0 C 88 % 1017,1 hPa 0,0 l/m 0 min 0 min 2 W/m 35,4 km/h (5 Bft) 100,00 %
16.11.2020 16:22 11,9 C 11,1 C 10,0 C 89 % 1017,2 hPa 0,0 l/m 0 min 0 min 5 W/m 19,3 km/h (3 Bft) 100,00 %
16.11.2020 16:24 11,9 C 11,1 C 10,0 C 89 % 1017,2 hPa 0,0 l/m 0 min 0 min 5 W/m 22,5 km/h (4 Bft) 100,00 %
16.11.2020 16:26 11,9 C 10,6 C 10,0 C 89 % 1017,2 hPa 0,0 l/m 0 min 0 min 7 W/m 22,5 km/h (4 Bft) 100,00 %
16.11.2020 16:28 11,9 C 10,6 C 10,0 C 89 % 1017,2 hPa 0,0 l/m 0 min 0 min 7 W/m 19,3 km/h (3 Bft) 100,00 %
16.11.2020 16:30 11,9 C 10,6 C 10,0 C 89 % 1017,2 hPa 0,0 l/m 0 min 0 min 5 W/m 16,1 km/h (3 Bft) 98,28 %
16.11.2020 16:32 11,8 C 10,6 C 10,0 C 90 % 1017,3 hPa 0,0 l/m 0 min 0 min 1 W/m 6,4 km/h (2 Bft) 97,22 %
16.11.2020 16:34 11,8 C 10,6 C 10,0 C 90 % 1017,3 hPa 0,0 l/m 0 min 0 min 0 W/m 16,1 km/h (3 Bft) 98,25 %
16.11.2020 16:36 11,8 C 10,6 C 10,0 C 90 % 1017,4 hPa 0,0 l/m 0 min 0 min 0 W/m 6,4 km/h (2 Bft) 97,30 %
16.11.2020 16:38 11,8 C 10,6 C 10,0 C 90 % 1017,4 hPa 0,0 l/m 0 min 0 min 0 W/m 16,1 km/h (3 Bft) 98,15 %
16.11.2020 16:40 11,8 C 10,6 C 10,0 C 91 % 1017,4 hPa 0,0 l/m 0 min 0 min 0 W/m 16,1 km/h (3 Bft) 98,04 %
16.11.2020 16:42 11,7 C 10,6 C 10,0 C 90 % 1017,5 hPa 0,0 l/m 0 min 0 min 0 W/m 6,4 km/h (2 Bft) 97,14 %
16.11.2020 16:44 11,7 C 10,6 C 10,0 C 91 % 1017,5 hPa 0,0 l/m 0 min 0 min 0 W/m 6,4 km/h (2 Bft) 98,18 %
16.11.2020 16:46 11,6 C 10,6 C 10,0 C 91 % 1017,6 hPa 0,0 l/m 0 min 0 min 0 W/m 22,5 km/h (4 Bft) 96,00 %
16.11.2020 16:48 11,6 C 10,6 C 10,0 C 91 % 1017,6 hPa 0,0 l/m 0 min 0 min 0 W/m 6,4 km/h (2 Bft) 97,22 %
16.11.2020 16:50 11,6 C 10,6 C 9,5 C 91 % 1017,6 hPa 0,0 l/m 0 min 0 min 0 W/m 6,4 km/h (2 Bft) 98,18 %
16.11.2020 16:52 11,6 C 10,0 C 9,5 C 91 % 1017,7 hPa 0,0 l/m 0 min 0 min 0 W/m 25,7 km/h (4 Bft) 97,37 %
16.11.2020 16:54 11,5 C 9,4 C 9,5 C 91 % 1017,7 hPa 0,0 l/m 0 min 2 min 0 W/m 16,1 km/h (3 Bft) 96,49 %
16.11.2020 16:56 11,5 C 9,4 C 8,9 C 92 % 1017,6 hPa 0,0 l/m 0 min 2 min 0 W/m 9,7 km/h (2 Bft) 95,92 %
16.11.2020 16:58 11,5 C 9,4 C 8,9 C 92 % 1017,7 hPa 0,0 l/m 0 min 2 min 0 W/m 12,9 km/h (3 Bft) 94,29 %
16.11.2020 17:00 11,4 C 9,4 C 8,9 C 92 % 1017,8 hPa 0,0 l/m 0 min 0 min 0 W/m 6,4 km/h (2 Bft) 94,55 %
16.11.2020 17:02 11,4 C 9,4 C 8,9 C 92 % 1017,7 hPa 0,0 l/m 0 min 0 min 0 W/m 22,5 km/h (4 Bft) 92,00 %
16.11.2020 17:04 11,3 C 9,4 C 8,9 C 92 % 1017,7 hPa 0,0 l/m 0 min 0 min 0 W/m 12,9 km/h (3 Bft) 97,14 %
16.11.2020 17:06 11,3 C 9,4 C 8,9 C 92 % 1017,7 hPa 0,0 l/m 0 min 0 min 0 W/m 25,7 km/h (4 Bft) 92,59 %
16.11.2020 17:08 11,2 C 9,4 C 8,9 C 92 % 1017,8 hPa 0,0 l/m 0 min 0 min 0 W/m 3,2 km/h (1 Bft) 96,08 %
16.11.2020 17:10 11,2 C 10,0 C 8,9 C 92 % 1017,8 hPa 0,0 l/m 0 min 0 min 0 W/m 22,5 km/h (4 Bft) 91,67 %
16.11.2020 17:12 11,1 C 10,0 C 8,9 C 92 % 1017,8 hPa 0,0 l/m 0 min 0 min 0 W/m 16,1 km/h (3 Bft) 96,49 %
16.11.2020 17:14 11,1 C 10,0 C 8,9 C 93 % 1017,9 hPa 0,0 l/m 0 min 0 min 0 W/m 3,2 km/h (1 Bft) 95,83 %
16.11.2020 17:16 11,1 C 10,0 C 8,9 C 93 % 1017,9 hPa 0,0 l/m 0 min 0 min 0 W/m 16,1 km/h (3 Bft) 95,24 %
16.11.2020 17:18 11,0 C 10,0 C 8,9 C 93 % 1017,9 hPa 0,0 l/m 0 min 0 min 0 W/m 19,3 km/h (3 Bft) 96,08 %
16.11.2020 17:20 11,0 C 10,0 C 8,9 C 93 % 1017,9 hPa 0,0 l/m 0 min 0 min 0 W/m 3,2 km/h (1 Bft) 91,67 %
16.11.2020 17:22 11,0 C 10,0 C 8,9 C 93 % 1017,9 hPa 0,0 l/m 0 min 0 min 0 W/m 16,1 km/h (3 Bft) 96,30 %
16.11.2020 17:24 10,9 C 10,0 C 8,9 C 93 % 1018,0 hPa 0,0 l/m 0 min 0 min 0 W/m 16,1 km/h (3 Bft) 93,88 %
16.11.2020 17:26 10,9 C 10,0 C 8,9 C 93 % 1018,1 hPa 0,0 l/m 0 min 0 min 0 W/m 16,1 km/h (3 Bft) 93,88 %
16.11.2020 17:28 10,8 C 9,4 C 8,9 C 92 % 1018,3 hPa 0,0 l/m 0 min 0 min 0 W/m 16,1 km/h (3 Bft) 91,43 %
16.11.2020 17:30 10,8 C 9,4 C 8,9 C 92 % 1018,3 hPa 0,0 l/m 0 min 0 min 0 W/m 12,9 km/h (3 Bft) 94,64 %
16.11.2020 17:32 10,8 C 9,4 C 8,9 C 92 % 1018,4 hPa 0,0 l/m 0 min 0 min 0 W/m 19,3 km/h (3 Bft) 94,00 %
16.11.2020 17:34 10,7 C 9,4 C 8,9 C 92 % 1018,3 hPa 0,0 l/m 0 min 0 min 0 W/m 12,9 km/h (3 Bft) 97,67 %
16.11.2020 17:36 10,6 C 9,4 C 8,9 C 92 % 1018,4 hPa 0,0 l/m 0 min 0 min 0 W/m 19,3 km/h (3 Bft) 96,00 %
16.11.2020 17:38 10,6 C 9,4 C 8,9 C 92 % 1018,4 hPa 0,0 l/m 0 min 0 min 0 W/m 25,7 km/h (4 Bft) 97,14 %
16.11.2020 17:40 10,6 C 9,4 C 8,9 C 92 % 1018,4 hPa 0,0 l/m 0 min 0 min 0 W/m 6,4 km/h (2 Bft) 94,34 %
16.11.2020 17:42 10,6 C 9,4 C 8,9 C 92 % 1018,4 hPa 0,0 l/m 0 min 0 min 0 W/m 16,1 km/h (3 Bft) 96,08 %
16.11.2020 17:44 10,5 C 9,4 C 8,9 C 92 % 1018,4 hPa 0,0 l/m 0 min 0 min 0 W/m 19,3 km/h (3 Bft) 97,96 %
16.11.2020 17:46 10,5 C 9,4 C 8,9 C 92 % 1018,4 hPa 0,0 l/m 0 min 0 min 0 W/m 12,9 km/h (3 Bft) 95,24 %
16.11.2020 17:48 10,5 C 9,4 C 8,9 C 92 % 1018,5 hPa 0,0 l/m 0 min 0 min 0 W/m 12,9 km/h (3 Bft) 98,00 %
16.11.2020 17:50 10,5 C 9,4 C 8,9 C 92 % 1018,7 hPa 0,0 l/m 0 min 0 min 0 W/m 19,3 km/h (3 Bft) 94,44 %
16.11.2020 17:52 10,5 C 9,4 C 8,9 C 92 % 1018,7 hPa 0,0 l/m 0 min 0 min 0 W/m 6,4 km/h (2 Bft) 98,21 %
16.11.2020 17:54 10,5 C 9,4 C 8,9 C 92 % 1018,8 hPa 0,0 l/m 0 min 0 min 0 W/m 19,3 km/h (3 Bft) 98,00 %
16.11.2020 17:56 10,5 C 9,4 C 8,9 C 92 % 1018,8 hPa 0,0 l/m 0 min 0 min 0 W/m 6,4 km/h (2 Bft) 97,14 %
16.11.2020 17:58 10,5 C 9,4 C 8,9 C 92 % 1018,9 hPa 0,0 l/m 0 min 0 min 0 W/m 19,3 km/h (3 Bft) 98,21 %
16.11.2020 18:00 10,5 C 9,4 C 8,9 C 92 % 1018,9 hPa 0,0 l/m 0 min 0 min 0 W/m 6,4 km/h (2 Bft) 95,92 %
16.11.2020 18:02 10,5 C 9,4 C 8,9 C 92 % 1018,9 hPa 0,0 l/m 0 min 0 min 0 W/m 12,9 km/h (3 Bft) 97,14 %
16.11.2020 18:04 10,5 C 9,4 C 8,9 C 92 % 1018,9 hPa 0,0 l/m 0 min 0 min 0 W/m 25,7 km/h (4 Bft) 96,49 %
16.11.2020 18:08 10,5 C 9,4 C 8,9 C 92 % 1018,8 hPa 0,0 l/m 0 min 0 min 0 W/m 16,1 km/h (3 Bft) 97,62 %
16.11.2020 18:10 10,5 C 9,4 C 8,9 C 92 % 1018,8 hPa 0,0 l/m 0 min 0 min 0 W/m 12,9 km/h (3 Bft) 96,30 %
16.11.2020 18:12 10,5 C 9,4 C 8,9 C 92 % 1018,9 hPa 0,0 l/m 0 min 0 min 0 W/m 22,5 km/h (4 Bft) 98,00 %
16.11.2020 18:14 10,5 C 9,4 C 8,9 C 91 % 1018,9 hPa 0,0 l/m 0 min 0 min 0 W/m 19,3 km/h (3 Bft) 97,92 %
16.11.2020 18:16 10,5 C 9,4 C 8,9 C 91 % 1019,0 hPa 0,0 l/m 0 min 0 min 0 W/m 3,2 km/h (1 Bft) 97,14 %
16.11.2020 18:18 10,5 C 9,4 C 8,9 C 91 % 1019,1 hPa 0,0 l/m 0 min 0 min 0 W/m 6,4 km/h (2 Bft) 98,25 %
16.11.2020 18:20 10,5 C 9,4 C 8,9 C 91 % 1019,1 hPa 0,0 l/m 0 min 0 min 0 W/m 12,9 km/h (3 Bft) 97,96 %
16.11.2020 18:22 10,5 C 9,4 C 8,9 C 91 % 1019,1 hPa 0,0 l/m 0 min 0 min 0 W/m 16,1 km/h (3 Bft) 100,00 %
16.11.2020 18:24 10,5 C 9,4 C 9,5 C 91 % 1019,1 hPa 0,0 l/m 0 min 0 min 0 W/m 0,0 km/h (0 Bft) 100,00 %
16.11.2020 18:26 10,5 C 9,4 C 9,5 C 92 % 1019,1 hPa 0,0 l/m 0 min 0 min 0 W/m 12,9 km/h (3 Bft) 100,00 %
16.11.2020 18:28 10,5 C 9,4 C 9,5 C 92 % 1019,2 hPa 0,0 l/m 0 min 0 min 0 W/m 6,4 km/h (2 Bft) 100,00 %
16.11.2020 18:30 10,5 C 9,4 C 9,5 C 92 % 1019,1 hPa 0,0 l/m 0 min 0 min 0 W/m 19,3 km/h (3 Bft) 100,00 %
16.11.2020 18:32 10,6 C 9,4 C 9,5 C 92 % 1019,2 hPa 0,0 l/m 0 min 0 min 0 W/m 6,4 km/h (2 Bft) 100,00 %
16.11.2020 18:34 10,6 C 9,4 C 8,9 C 92 % 1019,2 hPa 0,0 l/m 0 min 2 min 0 W/m 16,1 km/h (3 Bft) 100,00 %
16.11.2020 18:36 10,6 C 9,4 C 8,9 C 92 % 1019,1 hPa 0,0 l/m 0 min 0 min 0 W/m 16,1 km/h (3 Bft) 100,00 %
16.11.2020 18:38 10,6 C 9,4 C 8,9 C 92 % 1019,2 hPa 0,0 l/m 0 min 2 min 0 W/m 32,2 km/h (5 Bft) 100,00 %
16.11.2020 18:40 10,6 C 9,4 C 8,9 C 92 % 1019,1 hPa 0,0 l/m 0 min 2 min 0 W/m 22,5 km/h (4 Bft) 100,00 %
16.11.2020 18:42 10,6 C 9,4 C 8,9 C 92 % 1019,2 hPa 0,0 l/m 0 min 2 min 0 W/m 32,2 km/h (5 Bft) 98,28 %
16.11.2020 18:44 10,6 C 10,0 C 8,9 C 93 % 1019,3 hPa 0,0 l/m 0 min 2 min 0 W/m 22,5 km/h (4 Bft) 100,00 %
16.11.2020 18:46 10,6 C 10,0 C 8,9 C 93 % 1019,3 hPa 0,0 l/m 0 min 2 min 0 W/m 32,2 km/h (5 Bft) 98,18 %
16.11.2020 18:48 10,6 C 10,0 C 8,9 C 93 % 1019,4 hPa 0,0 l/m 0 min 2 min 0 W/m 32,2 km/h (5 Bft) 100,00 %
16.11.2020 18:50 10,6 C 10,0 C 8,9 C 93 % 1019,4 hPa 0,0 l/m 0 min 0 min 0 W/m 19,3 km/h (3 Bft) 100,00 %
16.11.2020 18:52 10,6 C 10,0 C 8,9 C 93 % 1019,4 hPa 0,0 l/m 0 min 0 min 0 W/m 22,5 km/h (4 Bft) 100,00 %
16.11.2020 18:54 10,6 C 10,0 C 8,9 C 93 % 1019,4 hPa 0,0 l/m 0 min 0 min 0 W/m 12,9 km/h (3 Bft) 100,00 %
16.11.2020 18:56 10,6 C 10,0 C 8,9 C 93 % 1019,4 hPa 0,0 l/m 0 min 0 min 0 W/m 22,5 km/h (4 Bft) 98,25 %
16.11.2020 18:58 10,6 C 10,0 C 9,5 C 93 % 1019,4 hPa 0,0 l/m 0 min 0 min 0 W/m 29,0 km/h (5 Bft) 97,92 %
16.11.2020 19:00 10,6 C 10,0 C 9,5 C 92 % 1019,6 hPa 0,0 l/m 0 min 0 min 0 W/m 25,7 km/h (4 Bft) 100,00 %
16.11.2020 19:02 10,5 C 10,0 C 8,9 C 92 % 1019,5 hPa 0,0 l/m 0 min 0 min 0 W/m 22,5 km/h (4 Bft) 100,00 %
16.11.2020 19:04 10,5 C 10,0 C 8,9 C 92 % 1019,5 hPa 0,0 l/m 0 min 0 min 0 W/m 12,9 km/h (3 Bft) 100,00 %
16.11.2020 19:06 10,5 C 9,4 C 8,9 C 92 % 1019,5 hPa 0,0 l/m 0 min 0 min 0 W/m 16,1 km/h (3 Bft) 100,00 %
16.11.2020 19:08 10,5 C 9,4 C 8,9 C 92 % 1019,5 hPa 0,0 l/m 0 min 0 min 0 W/m 19,3 km/h (3 Bft) 100,00 %
16.11.2020 19:10 10,5 C 9,4 C 8,9 C 92 % 1019,6 hPa 0,0 l/m 0 min 0 min 0 W/m 16,1 km/h (3 Bft) 100,00 %
16.11.2020 19:12 10,4 C 9,4 C 8,9 C 92 % 1019,7 hPa 0,0 l/m 0 min 0 min 0 W/m 25,7 km/h (4 Bft) 100,00 %
16.11.2020 19:14 10,4 C 9,4 C 8,9 C 92 % 1019,7 hPa 0,0 l/m 0 min 0 min 0 W/m 19,3 km/h (3 Bft) 100,00 %
16.11.2020 19:16 10,3 C 9,4 C 8,9 C 92 % 1019,7 hPa 0,0 l/m 0 min 0 min 0 W/m 12,9 km/h (3 Bft) 97,14 %
16.11.2020 19:18 10,3 C 9,4 C 8,9 C 91 % 1019,8 hPa 0,0 l/m 0 min 0 min 0 W/m 25,7 km/h (4 Bft) 100,00 %
16.11.2020 19:20 10,3 C 9,4 C 8,9 C 91 % 1019,8 hPa 0,0 l/m 0 min 0 min 0 W/m 25,7 km/h (4 Bft) 100,00 %
16.11.2020 19:22 10,3 C 9,4 C 8,9 C 91 % 1019,8 hPa 0,0 l/m 0 min 0 min 0 W/m 25,7 km/h (4 Bft) 100,00 %
16.11.2020 19:24 10,2 C 9,4 C 8,9 C 91 % 1019,8 hPa 0,0 l/m 0 min 0 min 0 W/m 12,9 km/h (3 Bft) 100,00 %
16.11.2020 19:26 10,1 C 9,4 C 8,9 C 91 % 1019,9 hPa 0,0 l/m 0 min 0 min 0 W/m 12,9 km/h (3 Bft) 100,00 %
16.11.2020 19:28 10,1 C 9,4 C 8,9 C 91 % 1019,9 hPa 0,0 l/m 0 min 0 min 0 W/m 6,4 km/h (2 Bft) 100,00 %
16.11.2020 19:30 10,1 C 9,4 C 8,4 C 91 % 1019,9 hPa 0,0 l/m 0 min 0 min 0 W/m 3,2 km/h (1 Bft) 100,00 %
16.11.2020 19:32 10,0 C 9,4 C 8,4 C 91 % 1019,9 hPa 0,0 l/m 0 min 0 min 0 W/m 0,0 km/h (0 Bft) 100,00 %
16.11.2020 19:34 10,0 C 9,4 C 8,4 C 90 % 1019,9 hPa 0,0 l/m 0 min 0 min 0 W/m 0,0 km/h (0 Bft) 97,87 %
16.11.2020 19:36 10,0 C 8,9 C 8,4 C 90 % 1019,9 hPa 0,0 l/m 0 min 0 min 0 W/m 0,0 km/h (0 Bft) 97,83 %
16.11.2020 19:38 10,0 C 8,9 C 8,4 C 90 % 1019,9 hPa 0,0 l/m 0 min 0 min 0 W/m 0,0 km/h (0 Bft) 100,00 %
16.11.2020 19:40 9,9 C 8,9 C 8,4 C 90 % 1019,9 hPa 0,0 l/m 0 min 0 min 0 W/m 22,5 km/h (4 Bft) 97,87 %
16.11.2020 19:42 9,9 C 8,9 C 8,4 C 90 % 1019,8 hPa 0,0 l/m 0 min 0 min 0 W/m 9,7 km/h (2 Bft) 62,50 %
16.11.2020 19:44 9,9 C 8,9 C 8,4 C 90 % 1019,9 hPa 0,0 l/m 0 min 0 min 0 W/m 12,9 km/h (3 Bft) 100,00 %
16.11.2020 19:46 9,9 C 8,9 C 8,4 C 90 % 1020,0 hPa 0,0 l/m 0 min 0 min 0 W/m 12,9 km/h (3 Bft) 97,87 %
16.11.2020 19:48 9,9 C 8,9 C 8,4 C 90 % 1019,9 hPa 0,0 l/m 0 min 0 min 0 W/m 12,9 km/h (3 Bft) 97,87 %
16.11.2020 19:50 9,8 C 8,9 C 8,4 C 90 % 1020,0 hPa 0,0 l/m 0 min 0 min 0 W/m 3,2 km/h (1 Bft) 97,87 %
16.11.2020 19:52 9,8 C 8,9 C 8,4 C 90 % 1020,1 hPa 0,0 l/m 0 min 0 min 0 W/m 6,4 km/h (2 Bft) 97,87 %
16.11.2020 19:54 9,8 C 8,9 C 8,4 C 90 % 1020,1 hPa 0,0 l/m 0 min 0 min 0 W/m 19,3 km/h (3 Bft) 97,87 %
16.11.2020 19:56 9,8 C 8,9 C 8,4 C 90 % 1020,1 hPa 0,0 l/m 0 min 0 min 0 W/m 16,1 km/h (3 Bft) 95,65 %
16.11.2020 19:58 9,8 C 8,9 C 8,4 C 90 % 1020,1 hPa 0,0 l/m 0 min 0 min 0 W/m 16,1 km/h (3 Bft) 95,74 %
16.11.2020 20:00 9,8 C 8,9 C 8,4 C 90 % 1020,1 hPa 0,0 l/m 0 min 0 min 0 W/m 12,9 km/h (3 Bft) 97,87 %
16.11.2020 20:02 9,7 C 8,9 C 8,4 C 91 % 1020,2 hPa 0,0 l/m 0 min 0 min 0 W/m 16,1 km/h (3 Bft) 97,87 %
16.11.2020 20:04 9,7 C 8,9 C 8,4 C 91 % 1020,2 hPa 0,0 l/m 0 min 0 min 0 W/m 6,4 km/h (2 Bft) 97,87 %
16.11.2020 20:06 9,7 C 8,9 C 8,4 C 91 % 1020,2 hPa 0,0 l/m 0 min 0 min 0 W/m 6,4 km/h (2 Bft) 95,74 %
16.11.2020 20:08 9,6 C 8,9 C 8,4 C 91 % 1020,2 hPa 0,0 l/m 0 min 0 min 0 W/m 6,4 km/h (2 Bft) 97,83 %
16.11.2020 20:10 9,6 C 8,9 C 8,4 C 91 % 1020,3 hPa 0,0 l/m 0 min 0 min 0 W/m 12,9 km/h (3 Bft) 97,87 %
16.11.2020 20:12 9,6 C 8,9 C 8,4 C 91 % 1020,3 hPa 0,0 l/m 0 min 0 min 0 W/m 6,4 km/h (2 Bft) 97,87 %
16.11.2020 20:14 9,6 C 8,9 C 8,4 C 91 % 1020,2 hPa 0,0 l/m 0 min 0 min 0 W/m 6,4 km/h (2 Bft) 95,74 %
16.11.2020 20:16 9,6 C 8,9 C 8,4 C 91 % 1020,1 hPa 0,0 l/m 0 min 0 min 0 W/m 6,4 km/h (2 Bft) 93,62 %
16.11.2020 20:18 9,5 C 8,9 C 8,4 C 91 % 1020,1 hPa 0,0 l/m 0 min 0 min 0 W/m 6,4 km/h (2 Bft) 97,83 %
16.11.2020 20:20 9,5 C 8,9 C 8,4 C 91 % 1020,3 hPa 0,0 l/m 0 min 0 min 0 W/m 12,9 km/h (3 Bft) 97,87 %
16.11.2020 20:22 9,5 C 8,9 C 8,4 C 91 % 1020,3 hPa 0,0 l/m 0 min 0 min 0 W/m 12,9 km/h (3 Bft) 93,62 %
16.11.2020 20:24 9,5 C 8,9 C 8,4 C 91 % 1020,4 hPa 0,0 l/m 0 min 0 min 0 W/m 6,4 km/h (2 Bft) 95,74 %
16.11.2020 20:26 9,5 C 8,9 C 8,4 C 91 % 1020,4 hPa 0,0 l/m 0 min 0 min 0 W/m 22,5 km/h (4 Bft) 93,62 %
16.11.2020 20:28 9,5 C 8,9 C 8,4 C 92 % 1020,4 hPa 0,0 l/m 0 min 0 min 0 W/m 12,9 km/h (3 Bft) 95,74 %
16.11.2020 20:30 9,5 C 8,9 C 8,4 C 92 % 1020,5 hPa 0,0 l/m 0 min 0 min 0 W/m 22,5 km/h (4 Bft) 93,48 %
16.11.2020 20:32 9,5 C 8,9 C 8,4 C 92 % 1020,5 hPa 0,0 l/m 0 min 0 min 0 W/m 22,5 km/h (4 Bft) 93,62 %
16.11.2020 20:34 9,5 C 8,9 C 8,4 C 92 % 1020,4 hPa 0,0 l/m 0 min 0 min 0 W/m 19,3 km/h (3 Bft) 95,74 %
16.11.2020 20:36 9,5 C 8,9 C 8,4 C 92 % 1020,5 hPa 0,0 l/m 0 min 0 min 0 W/m 16,1 km/h (3 Bft) 95,74 %
16.11.2020 20:38 9,5 C 8,9 C 8,4 C 92 % 1020,4 hPa 0,0 l/m 0 min 0 min 0 W/m 3,2 km/h (1 Bft) 93,62 %
16.11.2020 20:40 9,5 C 8,9 C 8,4 C 92 % 1020,4 hPa 0,0 l/m 0 min 0 min 0 W/m 19,3 km/h (3 Bft) 95,74 %
16.11.2020 20:42 9,5 C 8,9 C 8,4 C 92 % 1020,4 hPa 0,0 l/m 0 min 0 min 0 W/m 16,1 km/h (3 Bft) 95,65 %
16.11.2020 20:44 9,5 C 8,9 C 8,4 C 92 % 1020,3 hPa 0,0 l/m 0 min 0 min 0 W/m 19,3 km/h (3 Bft) 94,44 %
16.11.2020 20:46 9,5 C 8,9 C 8,4 C 92 % 1020,3 hPa 0,0 l/m 0 min 0 min 0 W/m 16,1 km/h (3 Bft) 93,48 %
16.11.2020 20:48 9,5 C 8,9 C 8,4 C 92 % 1020,3 hPa 0,0 l/m 0 min 0 min 0 W/m 12,9 km/h (3 Bft) 95,74 %
16.11.2020 20:50 9,5 C 8,9 C 8,4 C 92 % 1020,4 hPa 0,0 l/m 0 min 0 min 0 W/m 19,3 km/h (3 Bft) 95,74 %
16.11.2020 20:52 9,5 C 8,9 C 8,4 C 92 % 1020,4 hPa 0,0 l/m 0 min 0 min 0 W/m 12,9 km/h (3 Bft) 95,74 %
16.11.2020 20:54 9,5 C 8,9 C 8,4 C 92 % 1020,4 hPa 0,0 l/m 0 min 0 min 0 W/m 6,4 km/h (2 Bft) 95,74 %
16.11.2020 20:56 9,5 C 8,9 C 8,4 C 92 % 1020,4 hPa 0,0 l/m 0 min 0 min 0 W/m 16,1 km/h (3 Bft) 95,65 %
16.11.2020 20:58 9,5 C 8,9 C 8,4 C 92 % 1020,5 hPa 0,0 l/m 0 min 0 min 0 W/m 3,2 km/h (1 Bft) 95,74 %
16.11.2020 21:00 9,5 C 8,9 C 8,4 C 92 % 1020,4 hPa 0,0 l/m 0 min 0 min 0 W/m 3,2 km/h (1 Bft) 93,62 %
16.11.2020 21:02 9,5 C 8,9 C 8,4 C 92 % 1020,4 hPa 0,0 l/m 0 min 0 min 0 W/m 0,0 km/h (0 Bft) 95,74 %
16.11.2020 21:04 9,5 C 8,9 C 8,4 C 92 % 1020,4 hPa 0,0 l/m 0 min 0 min 0 W/m 3,2 km/h (1 Bft) 95,74 %
16.11.2020 21:06 9,5 C 8,9 C 8,4 C 92 % 1020,4 hPa 0,0 l/m 0 min 0 min 0 W/m 3,2 km/h (1 Bft) 95,74 %
16.11.2020 21:08 9,5 C 8,9 C 8,4 C 92 % 1020,4 hPa 0,0 l/m 0 min 0 min 0 W/m 3,2 km/h (1 Bft) 95,65 %
16.11.2020 21:10 9,4 C 8,9 C 8,4 C 92 % 1020,4 hPa 0,0 l/m 0 min 0 min 0 W/m 16,1 km/h (3 Bft) 97,87 %
16.11.2020 21:12 9,4 C 8,9 C 8,4 C 92 % 1020,4 hPa 0,0 l/m 0 min 0 min 0 W/m 6,4 km/h (2 Bft) 97,87 %
16.11.2020 21:14 9,4 C 8,9 C 8,4 C 92 % 1020,5 hPa 0,0 l/m 0 min 0 min 0 W/m 19,3 km/h (3 Bft) 97,87 %
16.11.2020 21:16 9,4 C 8,9 C 8,4 C 92 % 1020,4 hPa 0,0 l/m 0 min 0 min 0 W/m 12,9 km/h (3 Bft) 97,87 %
16.11.2020 21:18 9,4 C 8,9 C 8,4 C 92 % 1020,5 hPa 0,0 l/m 0 min 0 min 0 W/m 6,4 km/h (2 Bft) 97,87 %
16.11.2020 21:20 9,4 C 8,9 C 8,4 C 92 % 1020,5 hPa 0,0 l/m 0 min 0 min 0 W/m 3,2 km/h (1 Bft) 97,87 %
16.11.2020 21:22 9,4 C 8,9 C 8,4 C 92 % 1020,5 hPa 0,0 l/m 0 min 0 min 0 W/m 12,9 km/h (3 Bft) 97,83 %
16.11.2020 21:24 9,4 C 8,9 C 8,4 C 92 % 1020,5 hPa 0,0 l/m 0 min 0 min 0 W/m 6,4 km/h (2 Bft) 95,74 %
16.11.2020 21:26 9,4 C 8,9 C 8,4 C 92 % 1020,6 hPa 0,0 l/m 0 min 0 min 0 W/m 6,4 km/h (2 Bft) 97,87 %
16.11.2020 21:28 9,4 C 8,9 C 8,4 C 92 % 1020,7 hPa 0,0 l/m 0 min 0 min 0 W/m 6,4 km/h (2 Bft) 93,62 %
16.11.2020 21:30 9,4 C 8,9 C 8,4 C 92 % 1020,7 hPa 0,0 l/m 0 min 0 min 0 W/m 6,4 km/h (2 Bft) 97,87 %
16.11.2020 21:32 9,4 C 8,9 C 8,4 C 92 % 1020,7 hPa 0,0 l/m 0 min 0 min 0 W/m 12,9 km/h (3 Bft) 98,08 %
16.11.2020 21:34 9,4 C 8,9 C 8,4 C 92 % 1020,7 hPa 0,0 l/m 0 min 0 min 0 W/m 0,0 km/h (0 Bft) 100,00 %
16.11.2020 21:36 9,4 C 8,9 C 8,4 C 93 % 1020,8 hPa 0,0 l/m 0 min 0 min 0 W/m 6,4 km/h (2 Bft) 100,00 %
16.11.2020 21:38 9,4 C 8,9 C 8,4 C 92 % 1020,8 hPa 0,0 l/m 0 min 0 min 0 W/m 3,2 km/h (1 Bft) 100,00 %
16.11.2020 21:40 9,4 C 8,9 C 8,4 C 92 % 1020,8 hPa 0,0 l/m 0 min 0 min 0 W/m 0,0 km/h (0 Bft) 97,87 %
16.11.2020 21:42 9,4 C 8,9 C 8,4 C 92 % 1020,9 hPa 0,0 l/m 0 min 0 min 0 W/m 6,4 km/h (2 Bft) 100,00 %
16.11.2020 21:44 9,4 C 8,9 C 8,4 C 92 % 1020,9 hPa 0,0 l/m 0 min 0 min 0 W/m 6,4 km/h (2 Bft) 100,00 %
16.11.2020 21:46 9,4 C 8,9 C 8,4 C 92 % 1020,9 hPa 0,0 l/m 0 min 0 min 0 W/m 19,3 km/h (3 Bft) 97,56 %
16.11.2020 21:48 9,4 C 8,9 C 8,4 C 93 % 1020,9 hPa 0,0 l/m 0 min 0 min 0 W/m 16,1 km/h (3 Bft) 100,00 %
16.11.2020 21:50 9,4 C 8,9 C 8,4 C 93 % 1021,0 hPa 0,0 l/m 0 min 0 min 0 W/m 12,9 km/h (3 Bft) 95,74 %
16.11.2020 21:52 9,4 C 8,9 C 8,4 C 93 % 1020,9 hPa 0,0 l/m 0 min 0 min 0 W/m 6,4 km/h (2 Bft) 100,00 %
16.11.2020 21:54 9,4 C 8,9 C 8,4 C 93 % 1020,9 hPa 0,0 l/m 0 min 0 min 0 W/m 3,2 km/h (1 Bft) 100,00 %
16.11.2020 21:56 9,4 C 8,9 C 8,4 C 93 % 1021,0 hPa 0,0 l/m 0 min 0 min 0 W/m 22,5 km/h (4 Bft) 100,00 %
16.11.2020 21:58 9,4 C 8,9 C 8,4 C 93 % 1021,0 hPa 0,0 l/m 0 min 0 min 0 W/m 16,1 km/h (3 Bft) 100,00 %
16.11.2020 22:00 9,4 C 8,9 C 8,4 C 93 % 1021,0 hPa 0,0 l/m 0 min 0 min 0 W/m 16,1 km/h (3 Bft) 98,11 %
16.11.2020 22:02 9,4 C 8,9 C 8,4 C 93 % 1021,0 hPa 0,0 l/m 0 min 0 min 0 W/m 12,9 km/h (3 Bft) 100,00 %
16.11.2020 22:04 9,4 C 8,9 C 8,4 C 93 % 1021,1 hPa 0,0 l/m 0 min 0 min 0 W/m 6,4 km/h (2 Bft) 97,87 %
16.11.2020 22:06 9,4 C 8,9 C 8,4 C 93 % 1021,2 hPa 0,0 l/m 0 min 0 min 0 W/m 6,4 km/h (2 Bft) 100,00 %
16.11.2020 22:08 9,4 C 8,9 C 8,4 C 93 % 1021,2 hPa 0,0 l/m 0 min 0 min 0 W/m 16,1 km/h (3 Bft) 100,00 %
16.11.2020 22:10 9,4 C 8,9 C 8,4 C 93 % 1021,2 hPa 0,0 l/m 0 min 0 min 0 W/m 19,3 km/h (3 Bft) 100,00 %
16.11.2020 22:12 9,4 C 8,9 C 8,4 C 93 % 1021,3 hPa 0,0 l/m 0 min 0 min 0 W/m 25,7 km/h (4 Bft) 100,00 %
16.11.2020 22:14 9,4 C 8,9 C 8,4 C 93 % 1021,3 hPa 0,0 l/m 0 min 0 min 0 W/m 12,9 km/h (3 Bft) 100,00 %
16.11.2020 22:16 9,4 C 8,9 C 8,4 C 93 % 1021,3 hPa 0,0 l/m 0 min 0 min 0 W/m 19,3 km/h (3 Bft) 100,00 %
16.11.2020 22:18 9,4 C 8,9 C 8,4 C 93 % 1021,4 hPa 0,0 l/m 0 min 0 min 0 W/m 19,3 km/h (3 Bft) 100,00 %
16.11.2020 22:20 9,4 C 8,9 C 8,4 C 93 % 1021,3 hPa 0,0 l/m 0 min 0 min 0 W/m 6,4 km/h (2 Bft) 100,00 %
16.11.2020 22:22 9,4 C 8,9 C 8,4 C 93 % 1021,4 hPa 0,0 l/m 0 min 0 min 0 W/m 16,1 km/h (3 Bft) 100,00 %
16.11.2020 22:24 9,4 C 8,9 C 8,4 C 93 % 1021,4 hPa 0,0 l/m 0 min 0 min 0 W/m 16,1 km/h (3 Bft) 100,00 %
16.11.2020 22:26 9,4 C 8,9 C 8,4 C 93 % 1021,4 hPa 0,0 l/m 0 min 0 min 0 W/m 16,1 km/h (3 Bft) 100,00 %
16.11.2020 22:28 9,4 C 8,9 C 8,4 C 93 % 1021,4 hPa 0,0 l/m 0 min 0 min 0 W/m 19,3 km/h (3 Bft) 100,00 %
16.11.2020 22:30 9,4 C 8,9 C 8,4 C 93 % 1021,5 hPa 0,0 l/m 0 min 0 min 0 W/m 16,1 km/h (3 Bft) 100,00 %
16.11.2020 22:32 9,4 C 8,9 C 8,4 C 93 % 1021,5 hPa 0,0 l/m 0 min 0 min 0 W/m 22,5 km/h (4 Bft) 100,00 %
16.11.2020 22:34 9,5 C 8,9 C 8,4 C 93 % 1021,5 hPa 0,0 l/m 0 min 0 min 0 W/m 16,1 km/h (3 Bft) 97,87 %
16.11.2020 22:36 9,5 C 8,9 C 8,4 C 93 % 1021,5 hPa 0,0 l/m 0 min 0 min 0 W/m 19,3 km/h (3 Bft) 95,74 %
16.11.2020 22:38 9,5 C 8,9 C 8,4 C 93 % 1021,6 hPa 0,0 l/m 0 min 0 min 0 W/m 19,3 km/h (3 Bft) 97,87 %
16.11.2020 22:40 9,5 C 8,9 C 8,4 C 93 % 1021,6 hPa 0,0 l/m 0 min 0 min 0 W/m 6,4 km/h (2 Bft) 95,65 %
16.11.2020 22:42 9,5 C 8,9 C 8,4 C 93 % 1021,6 hPa 0,0 l/m 0 min 0 min 0 W/m 22,5 km/h (4 Bft) 97,87 %
16.11.2020 22:44 9,5 C 8,9 C 8,4 C 93 % 1021,6 hPa 0,0 l/m 0 min 0 min 0 W/m 29,0 km/h (5 Bft) 97,87 %
16.11.2020 22:46 9,5 C 9,4 C 8,4 C 93 % 1021,7 hPa 0,0 l/m 0 min 0 min 0 W/m 25,7 km/h (4 Bft) 98,08 %
16.11.2020 22:48 9,6 C 9,4 C 8,9 C 93 % 1021,6 hPa 0,0 l/m 0 min 0 min 0 W/m 25,7 km/h (4 Bft) 97,87 %
16.11.2020 22:50 9,6 C 9,4 C 8,9 C 93 % 1021,6 hPa 0,0 l/m 0 min 0 min 0 W/m 19,3 km/h (3 Bft) 97,83 %
16.11.2020 22:52 9,6 C 9,4 C 8,9 C 93 % 1021,8 hPa 0,0 l/m 0 min 0 min 0 W/m 22,5 km/h (4 Bft) 93,62 %
16.11.2020 22:54 9,6 C 9,4 C 8,9 C 93 % 1021,6 hPa 0,0 l/m 0 min 0 min 0 W/m 25,7 km/h (4 Bft) 95,74 %
16.11.2020 22:56 9,6 C 9,4 C 8,9 C 93 % 1021,7 hPa 0,0 l/m 0 min 0 min 0 W/m 22,5 km/h (4 Bft) 97,87 %
16.11.2020 22:58 9,6 C 9,4 C 8,9 C 93 % 1021,7 hPa 0,0 l/m 0 min 0 min 0 W/m 29,0 km/h (5 Bft) 97,87 %
16.11.2020 23:00 9,7 C 9,4 C 8,9 C 93 % 1021,8 hPa 0,0 l/m 0 min 0 min 0 W/m 12,9 km/h (3 Bft) 97,87 %
16.11.2020 23:02 9,7 C 9,4 C 8,9 C 93 % 1021,7 hPa 0,0 l/m 0 min 0 min 0 W/m 16,1 km/h (3 Bft) 95,65 %
16.11.2020 23:04 9,7 C 9,4 C 8,9 C 93 % 1021,7 hPa 0,0 l/m 0 min 0 min 0 W/m 16,1 km/h (3 Bft) 97,87 %
16.11.2020 23:06 9,7 C 9,4 C 8,9 C 93 % 1021,7 hPa 0,0 l/m 0 min 0 min 0 W/m 3,2 km/h (1 Bft) 97,87 %
16.11.2020 23:08 9,8 C 9,4 C 8,9 C 93 % 1021,8 hPa 0,0 l/m 0 min 0 min 0 W/m 22,5 km/h (4 Bft) 95,74 %
16.11.2020 23:10 9,8 C 9,4 C 8,9 C 93 % 1021,8 hPa 0,0 l/m 0 min 0 min 0 W/m 22,5 km/h (4 Bft) 95,74 %
16.11.2020 23:12 9,8 C 9,4 C 8,9 C 93 % 1021,8 hPa 0,0 l/m 0 min 0 min 0 W/m 16,1 km/h (3 Bft) 93,62 %
16.11.2020 23:14 9,8 C 9,4 C 8,9 C 93 % 1021,8 hPa 0,0 l/m 0 min 0 min 0 W/m 16,1 km/h (3 Bft) 95,65 %
16.11.2020 23:16 9,8 C 9,4 C 8,9 C 93 % 1021,8 hPa 0,0 l/m 0 min 0 min 0 W/m 19,3 km/h (3 Bft) 95,74 %
16.11.2020 23:18 9,8 C 9,4 C 8,9 C 93 % 1021,8 hPa 0,0 l/m 0 min 0 min 0 W/m 12,9 km/h (3 Bft) 95,74 %
16.11.2020 23:20 9,8 C 9,4 C 8,9 C 93 % 1021,8 hPa 0,0 l/m 0 min 0 min 0 W/m 22,5 km/h (4 Bft) 97,87 %
16.11.2020 23:22 9,8 C 9,4 C 8,9 C 93 % 1021,8 hPa 0,0 l/m 0 min 0 min 0 W/m 19,3 km/h (3 Bft) 95,74 %
16.11.2020 23:24 9,8 C 9,4 C 8,9 C 93 % 1021,8 hPa 0,0 l/m 0 min 0 min 0 W/m 12,9 km/h (3 Bft) 97,87 %
16.11.2020 23:26 9,8 C 9,4 C 8,9 C 93 % 1021,9 hPa 0,0 l/m 0 min 0 min 0 W/m 19,3 km/h (3 Bft) 97,83 %
16.11.2020 23:28 9,8 C 9,4 C 8,9 C 93 % 1021,8 hPa 0,0 l/m 0 min 0 min 0 W/m 12,9 km/h (3 Bft) 97,87 %
16.11.2020 23:30 9,8 C 9,4 C 8,9 C 93 % 1021,7 hPa 0,0 l/m 0 min 0 min 0 W/m 19,3 km/h (3 Bft) 97,87 %
16.11.2020 23:32 9,8 C 9,4 C 8,9 C 93 % 1021,7 hPa 0,0 l/m 0 min 0 min 0 W/m 25,7 km/h (4 Bft) 97,14 %
16.11.2020 23:34 9,8 C 9,4 C 8,9 C 93 % 1021,7 hPa 0,0 l/m 0 min 0 min 0 W/m 19,3 km/h (3 Bft) 97,87 %
16.11.2020 23:36 9,8 C 9,4 C 8,9 C 93 % 1021,6 hPa 0,0 l/m 0 min 0 min 0 W/m 12,9 km/h (3 Bft) 97,87 %
16.11.2020 23:38 9,8 C 9,4 C 8,9 C 93 % 1021,7 hPa 0,0 l/m 0 min 0 min 0 W/m 9,7 km/h (2 Bft) 95,74 %
16.11.2020 23:40 9,8 C 9,4 C 8,9 C 93 % 1021,7 hPa 0,0 l/m 0 min 0 min 0 W/m 12,9 km/h (3 Bft) 97,83 %
16.11.2020 23:42 9,8 C 9,4 C 8,9 C 93 % 1021,7 hPa 0,0 l/m 0 min 0 min 0 W/m 12,9 km/h (3 Bft) 97,87 %
16.11.2020 23:44 9,8 C 8,9 C 8,4 C 93 % 1021,6 hPa 0,0 l/m 0 min 0 min 0 W/m 6,4 km/h (2 Bft) 97,87 %
16.11.2020 23:46 9,8 C 9,4 C 8,9 C 93 % 1021,8 hPa 0,0 l/m 0 min 0 min 0 W/m 25,7 km/h (4 Bft) 95,74 %
16.11.2020 23:48 9,8 C 9,4 C 8,9 C 93 % 1021,7 hPa 0,0 l/m 0 min 0 min 0 W/m 6,4 km/h (2 Bft) 97,87 %
16.11.2020 23:50 9,8 C 9,4 C 8,9 C 93 % 1021,7 hPa 0,0 l/m 0 min 0 min 0 W/m 19,3 km/h (3 Bft) 97,87 %
16.11.2020 23:52 9,8 C 9,4 C 8,9 C 93 % 1021,8 hPa 0,0 l/m 0 min 0 min 0 W/m 16,1 km/h (3 Bft) 95,65 %
16.11.2020 23:54 9,8 C 9,4 C 8,9 C 93 % 1021,8 hPa 0,0 l/m 0 min 0 min 0 W/m 6,4 km/h (2 Bft) 97,87 %
16.11.2020 23:56 9,8 C 9,4 C 8,9 C 93 % 1021,7 hPa 0,0 l/m 0 min 0 min 0 W/m 25,7 km/h (4 Bft) 95,74 %
16.11.2020 23:58 9,8 C 9,4 C 8,9 C 93 % 1021,7 hPa 0,0 l/m 0 min 0 min 0 W/m 22,5 km/h (4 Bft) 97,87 %
_ Min-Zeit 05:00 07:22 00:54 00:00 00:02 - - - - 00:54 10:16
Minimum _ 9,4 C 8,3 C 7,8 C 82 % 1004,9 hPa - - - - 0,0 km/h (0 Bft) 50,00 %
_ Max-Zeit 13:32 14:38 11:24 14:28 23:26 07:32 11:26 07:20 14:30 10:52 01:18
Maximum _ 12,0 C 13,3 C 10,6 C 95 % 1021,9 hPa 0,2 l/m 2 min 2 min 274 W/m 61,2 km/h
SO (7 Bft)
100,00 %
Durchschnitt _ 10,5 C 9,8 C 9,0 C 89 % 1013,7 hPa #0,6 l/m #26 min. #1:06 h 51 W/m 20,3 km/h (4 Bft) 97,52 %
© 2020 W. Hausmann